Wetterdaten: Dienstag, 10.02.2026
Datum Zeit Temp. Aussen Temp. o. S. Temp +5cm Feuchte Auss Luftdruck Regen Sonnenschein Regendauer Solar Windböen Empfang
10.02.2026 00:00 3,7 °C 2,8 °C -0,6 °C 90 % 1001,9 hPa 0,0 l/m² 0 min 0 min 0 W/m² 9,7 km/h (2 Bft) 100,00 %
10.02.2026 00:02 3,7 °C 2,8 °C -0,6 °C 90 % 1001,9 hPa 0,0 l/m² 0 min 0 min 0 W/m² 16,1 km/h (3 Bft) 100,00 %
10.02.2026 00:04 3,7 °C 2,8 °C -0,6 °C 90 % 1001,8 hPa 0,0 l/m² 0 min 0 min 0 W/m² 19,3 km/h (3 Bft) 100,00 %
10.02.2026 00:07 3,7 °C 2,8 °C -0,6 °C 90 % 1001,9 hPa 0,0 l/m² 0 min 0 min 0 W/m² 12,9 km/h (3 Bft) 96,20 %
10.02.2026 00:08 3,7 °C 2,8 °C -0,6 °C 90 % 1001,9 hPa 0,0 l/m² 0 min 0 min 0 W/m² 12,9 km/h (3 Bft) 95,65 %
10.02.2026 00:10 3,7 °C 2,8 °C -0,6 °C 90 % 1001,9 hPa 0,0 l/m² 0 min 0 min 0 W/m² 12,9 km/h (3 Bft) 97,87 %
10.02.2026 00:12 3,6 °C 2,8 °C -0,6 °C 90 % 1001,9 hPa 0,0 l/m² 0 min 0 min 0 W/m² 16,1 km/h (3 Bft) 97,87 %
10.02.2026 00:14 3,6 °C 2,8 °C -0,6 °C 90 % 1001,9 hPa 0,0 l/m² 0 min 0 min 0 W/m² 19,3 km/h (3 Bft) 97,87 %
10.02.2026 00:16 3,6 °C 2,8 °C -0,6 °C 90 % 1001,8 hPa 0,0 l/m² 0 min 0 min 0 W/m² 22,5 km/h (4 Bft) 97,87 %
10.02.2026 00:18 3,6 °C 2,8 °C -0,6 °C 90 % 1001,8 hPa 0,0 l/m² 0 min 0 min 0 W/m² 19,3 km/h (3 Bft) 97,87 %
10.02.2026 00:20 3,6 °C 2,8 °C -0,6 °C 90 % 1001,8 hPa 0,0 l/m² 0 min 0 min 0 W/m² 12,9 km/h (3 Bft) 95,74 %
10.02.2026 00:22 3,6 °C 2,8 °C -0,6 °C 90 % 1001,8 hPa 0,0 l/m² 0 min 0 min 0 W/m² 16,1 km/h (3 Bft) 97,87 %
10.02.2026 00:24 3,6 °C 2,8 °C -0,6 °C 90 % 1001,8 hPa 0,0 l/m² 0 min 0 min 0 W/m² 16,1 km/h (3 Bft) 97,14 %
10.02.2026 00:26 3,6 °C 2,8 °C -0,6 °C 90 % 1001,8 hPa 0,0 l/m² 0 min 0 min 0 W/m² 22,5 km/h (4 Bft) 96,55 %
10.02.2026 00:28 3,6 °C 2,8 °C -0,6 °C 90 % 1001,8 hPa 0,0 l/m² 0 min 0 min 0 W/m² 19,3 km/h (3 Bft) 97,22 %
10.02.2026 00:30 3,6 °C 2,8 °C -0,6 °C 90 % 1001,8 hPa 0,0 l/m² 0 min 0 min 0 W/m² 12,9 km/h (3 Bft) 97,87 %
10.02.2026 00:32 3,6 °C 2,8 °C -0,6 °C 90 % 1001,7 hPa 0,0 l/m² 0 min 0 min 0 W/m² 22,5 km/h (4 Bft) 97,83 %
10.02.2026 00:34 3,6 °C 2,8 °C -0,6 °C 90 % 1001,7 hPa 0,0 l/m² 0 min 0 min 0 W/m² 19,3 km/h (3 Bft) 97,87 %
10.02.2026 00:36 3,6 °C 2,8 °C -0,6 °C 90 % 1001,6 hPa 0,0 l/m² 0 min 0 min 0 W/m² 19,3 km/h (3 Bft) 100,00 %
10.02.2026 00:38 3,6 °C 2,8 °C -0,6 °C 90 % 1001,6 hPa 0,0 l/m² 0 min 0 min 0 W/m² 19,3 km/h (3 Bft) 100,00 %
10.02.2026 00:40 3,6 °C 2,8 °C -0,6 °C 90 % 1001,6 hPa 0,0 l/m² 0 min 0 min 0 W/m² 16,1 km/h (3 Bft) 100,00 %
10.02.2026 00:42 3,5 °C 2,8 °C -0,6 °C 90 % 1001,6 hPa 0,0 l/m² 0 min 0 min 0 W/m² 25,7 km/h (4 Bft) 100,00 %
10.02.2026 00:44 3,6 °C 2,8 °C -0,6 °C 90 % 1001,6 hPa 0,0 l/m² 0 min 0 min 0 W/m² 19,3 km/h (3 Bft) 100,00 %
10.02.2026 00:46 3,5 °C 2,8 °C -0,6 °C 90 % 1001,6 hPa 0,0 l/m² 0 min 0 min 0 W/m² 12,9 km/h (3 Bft) 100,00 %
10.02.2026 00:48 3,5 °C 2,8 °C -0,6 °C 90 % 1001,6 hPa 0,0 l/m² 0 min 0 min 0 W/m² 19,3 km/h (3 Bft) 100,00 %
10.02.2026 00:50 3,5 °C 2,8 °C -0,6 °C 90 % 1001,5 hPa 0,0 l/m² 0 min 0 min 0 W/m² 16,1 km/h (3 Bft) 100,00 %
10.02.2026 00:52 3,5 °C 2,8 °C -0,6 °C 90 % 1001,5 hPa 0,0 l/m² 0 min 0 min 0 W/m² 19,3 km/h (3 Bft) 97,87 %
10.02.2026 00:54 3,5 °C 2,8 °C -0,6 °C 90 % 1001,5 hPa 0,0 l/m² 0 min 0 min 0 W/m² 16,1 km/h (3 Bft) 100,00 %
10.02.2026 00:56 3,5 °C 2,8 °C -0,6 °C 91 % 1001,4 hPa 0,0 l/m² 0 min 0 min 0 W/m² 16,1 km/h (3 Bft) 100,00 %
10.02.2026 00:58 3,5 °C 2,8 °C -0,6 °C 91 % 1001,4 hPa 0,0 l/m² 0 min 0 min 0 W/m² 25,7 km/h (4 Bft) 97,87 %
10.02.2026 01:00 3,5 °C 2,8 °C -0,6 °C 91 % 1001,4 hPa 0,0 l/m² 0 min 0 min 0 W/m² 16,1 km/h (3 Bft) 100,00 %
10.02.2026 01:02 3,5 °C 2,8 °C -0,6 °C 91 % 1001,4 hPa 0,0 l/m² 0 min 0 min 0 W/m² 19,3 km/h (3 Bft) 100,00 %
10.02.2026 01:04 3,5 °C 2,8 °C -0,6 °C 91 % 1001,4 hPa 0,0 l/m² 0 min 0 min 0 W/m² 19,3 km/h (3 Bft) 100,00 %
10.02.2026 01:06 3,5 °C 2,8 °C -0,6 °C 91 % 1001,4 hPa 0,0 l/m² 0 min 0 min 0 W/m² 19,3 km/h (3 Bft) 100,00 %
10.02.2026 01:08 3,5 °C 2,8 °C -0,6 °C 91 % 1001,4 hPa 0,0 l/m² 0 min 0 min 0 W/m² 19,3 km/h (3 Bft) 100,00 %
10.02.2026 01:10 3,5 °C 2,8 °C -0,6 °C 91 % 1001,4 hPa 0,0 l/m² 0 min 0 min 0 W/m² 25,7 km/h (4 Bft) 100,00 %
10.02.2026 01:12 3,6 °C 2,8 °C -0,6 °C 91 % 1001,4 hPa 0,0 l/m² 0 min 0 min 0 W/m² 22,5 km/h (4 Bft) 97,87 %
10.02.2026 01:14 3,6 °C 2,8 °C -0,6 °C 91 % 1001,3 hPa 0,0 l/m² 0 min 0 min 0 W/m² 16,1 km/h (3 Bft) 100,00 %
10.02.2026 01:16 3,6 °C 2,8 °C -0,6 °C 91 % 1001,3 hPa 0,0 l/m² 0 min 0 min 0 W/m² 19,3 km/h (3 Bft) 100,00 %
10.02.2026 01:18 3,6 °C 2,8 °C -0,6 °C 91 % 1001,4 hPa 0,0 l/m² 0 min 0 min 0 W/m² 16,1 km/h (3 Bft) 97,87 %
10.02.2026 01:20 3,6 °C 2,8 °C -0,6 °C 91 % 1001,4 hPa 0,0 l/m² 0 min 0 min 0 W/m² 19,3 km/h (3 Bft) 100,00 %
10.02.2026 01:22 3,6 °C 2,8 °C -0,6 °C 91 % 1001,4 hPa 0,0 l/m² 0 min 0 min 0 W/m² 16,1 km/h (3 Bft) 100,00 %
10.02.2026 01:24 3,6 °C 2,8 °C -0,6 °C 91 % 1001,3 hPa 0,0 l/m² 0 min 0 min 0 W/m² 16,1 km/h (3 Bft) 95,74 %
10.02.2026 01:26 3,6 °C 2,8 °C -0,6 °C 91 % 1001,3 hPa 0,0 l/m² 0 min 0 min 0 W/m² 12,9 km/h (3 Bft) 100,00 %
10.02.2026 01:28 3,5 °C 2,8 °C -0,6 °C 91 % 1001,3 hPa 0,0 l/m² 0 min 0 min 0 W/m² 16,1 km/h (3 Bft) 100,00 %
10.02.2026 01:30 3,5 °C 2,8 °C -0,6 °C 91 % 1001,2 hPa 0,0 l/m² 0 min 0 min 0 W/m² 19,3 km/h (3 Bft) 97,87 %
10.02.2026 01:32 3,6 °C 2,8 °C -0,6 °C 91 % 1001,2 hPa 0,0 l/m² 0 min 0 min 0 W/m² 16,1 km/h (3 Bft) 100,00 %
10.02.2026 01:34 3,6 °C 2,8 °C -0,6 °C 91 % 1001,2 hPa 0,0 l/m² 0 min 0 min 0 W/m² 19,3 km/h (3 Bft) 97,87 %
10.02.2026 01:36 3,6 °C 2,8 °C -0,6 °C 91 % 1001,1 hPa 0,0 l/m² 0 min 0 min 0 W/m² 16,1 km/h (3 Bft) 93,62 %
10.02.2026 01:38 3,5 °C 2,8 °C -0,6 °C 91 % 1001,0 hPa 0,0 l/m² 0 min 0 min 0 W/m² 12,9 km/h (3 Bft) 95,65 %
10.02.2026 01:40 3,5 °C 2,8 °C -0,6 °C 91 % 1000,9 hPa 0,0 l/m² 0 min 0 min 0 W/m² 16,1 km/h (3 Bft) 93,62 %
10.02.2026 01:42 3,6 °C 2,8 °C -0,6 °C 91 % 1000,9 hPa 0,0 l/m² 0 min 0 min 0 W/m² 22,5 km/h (4 Bft) 95,74 %
10.02.2026 01:44 3,6 °C 2,8 °C -0,6 °C 91 % 1000,9 hPa 0,0 l/m² 0 min 0 min 0 W/m² 22,5 km/h (4 Bft) 95,74 %
10.02.2026 01:46 3,6 °C 2,8 °C -0,6 °C 91 % 1000,9 hPa 0,0 l/m² 0 min 0 min 0 W/m² 19,3 km/h (3 Bft) 95,74 %
10.02.2026 01:48 3,6 °C 2,8 °C -0,6 °C 91 % 1000,9 hPa 0,0 l/m² 0 min 0 min 0 W/m² 19,3 km/h (3 Bft) 95,74 %
10.02.2026 01:50 3,6 °C 2,8 °C -0,6 °C 91 % 1000,9 hPa 0,0 l/m² 0 min 0 min 0 W/m² 22,5 km/h (4 Bft) 93,62 %
10.02.2026 01:52 3,6 °C 2,8 °C -0,6 °C 91 % 1000,8 hPa 0,0 l/m² 0 min 0 min 0 W/m² 16,1 km/h (3 Bft) 91,49 %
10.02.2026 01:54 3,6 °C 2,8 °C -0,6 °C 91 % 1000,8 hPa 0,0 l/m² 0 min 0 min 0 W/m² 16,1 km/h (3 Bft) 93,62 %
10.02.2026 01:56 3,6 °C 2,8 °C -0,6 °C 91 % 1000,8 hPa 0,0 l/m² 0 min 0 min 0 W/m² 25,7 km/h (4 Bft) 91,49 %
10.02.2026 01:58 3,6 °C 2,8 °C -0,6 °C 91 % 1000,8 hPa 0,0 l/m² 0 min 0 min 0 W/m² 22,5 km/h (4 Bft) 93,62 %
10.02.2026 02:00 3,6 °C 2,8 °C -0,6 °C 91 % 1000,8 hPa 0,0 l/m² 0 min 0 min 0 W/m² 19,3 km/h (3 Bft) 93,62 %
10.02.2026 02:02 3,6 °C 2,8 °C -0,6 °C 91 % 1000,8 hPa 0,0 l/m² 0 min 0 min 0 W/m² 19,3 km/h (3 Bft) 91,49 %
10.02.2026 02:04 3,5 °C 2,8 °C -0,6 °C 91 % 1000,8 hPa 0,0 l/m² 0 min 0 min 0 W/m² 12,9 km/h (3 Bft) 93,62 %
10.02.2026 02:06 3,5 °C 2,8 °C -0,6 °C 91 % 1000,8 hPa 0,0 l/m² 0 min 0 min 0 W/m² 16,1 km/h (3 Bft) 91,30 %
10.02.2026 02:08 3,5 °C 2,8 °C -1,1 °C 91 % 1000,7 hPa 0,0 l/m² 0 min 0 min 0 W/m² 19,3 km/h (3 Bft) 89,58 %
10.02.2026 02:10 3,5 °C 2,8 °C -1,1 °C 91 % 1000,7 hPa 0,0 l/m² 0 min 0 min 0 W/m² 16,1 km/h (3 Bft) 91,49 %
10.02.2026 02:14 3,4 °C 2,8 °C -1,1 °C 91 % 1000,6 hPa 0,0 l/m² 0 min 0 min 0 W/m² 16,1 km/h (3 Bft) 100,00 %
10.02.2026 02:16 3,4 °C 2,8 °C -1,1 °C 91 % 1000,6 hPa 0,0 l/m² 0 min 0 min 0 W/m² 12,9 km/h (3 Bft) 89,36 %
10.02.2026 02:18 3,4 °C 2,8 °C -1,1 °C 91 % 1000,7 hPa 0,0 l/m² 0 min 0 min 0 W/m² 19,3 km/h (3 Bft) 97,87 %
10.02.2026 02:20 3,4 °C 2,8 °C -1,1 °C 91 % 1000,7 hPa 0,0 l/m² 0 min 0 min 0 W/m² 16,1 km/h (3 Bft) 93,48 %
10.02.2026 02:22 3,4 °C 2,8 °C -1,1 °C 91 % 1000,7 hPa 0,0 l/m² 0 min 0 min 0 W/m² 16,1 km/h (3 Bft) 94,12 %
10.02.2026 02:27 3,4 °C 2,8 °C -0,6 °C 91 % 1000,6 hPa 0,0 l/m² 0 min 0 min 0 W/m² 22,5 km/h (4 Bft) 97,30 %
10.02.2026 02:28 3,4 °C 2,8 °C -0,6 °C 91 % 1000,6 hPa 0,0 l/m² 0 min 0 min 0 W/m² 12,9 km/h (3 Bft) 100,00 %
10.02.2026 02:30 3,4 °C 2,8 °C -0,6 °C 91 % 1000,6 hPa 0,0 l/m² 0 min 0 min 0 W/m² 16,1 km/h (3 Bft) 95,74 %
10.02.2026 02:32 3,4 °C 2,8 °C -0,6 °C 91 % 1000,6 hPa 0,0 l/m² 0 min 0 min 0 W/m² 19,3 km/h (3 Bft) 97,87 %
10.02.2026 02:34 3,4 °C 2,8 °C -0,6 °C 91 % 1000,5 hPa 0,0 l/m² 0 min 0 min 0 W/m² 16,1 km/h (3 Bft) 97,87 %
10.02.2026 02:36 3,5 °C 2,8 °C -0,6 °C 91 % 1000,5 hPa 0,0 l/m² 0 min 0 min 0 W/m² 19,3 km/h (3 Bft) 100,00 %
10.02.2026 02:38 3,5 °C 2,8 °C -0,6 °C 91 % 1000,6 hPa 0,0 l/m² 0 min 0 min 0 W/m² 19,3 km/h (3 Bft) 100,00 %
10.02.2026 02:40 3,5 °C 3,3 °C -0,6 °C 91 % 1000,6 hPa 0,0 l/m² 0 min 0 min 0 W/m² 16,1 km/h (3 Bft) 100,00 %
10.02.2026 02:42 3,6 °C 2,8 °C -0,6 °C 91 % 1000,5 hPa 0,0 l/m² 0 min 0 min 0 W/m² 12,9 km/h (3 Bft) 100,00 %
10.02.2026 02:44 3,6 °C 2,8 °C -0,6 °C 91 % 1000,4 hPa 0,0 l/m² 0 min 0 min 0 W/m² 22,5 km/h (4 Bft) 97,87 %
10.02.2026 02:46 3,6 °C 2,8 °C -0,6 °C 91 % 1000,4 hPa 0,0 l/m² 0 min 0 min 0 W/m² 19,3 km/h (3 Bft) 100,00 %
10.02.2026 02:48 3,6 °C 2,8 °C -0,6 °C 91 % 1000,4 hPa 0,0 l/m² 0 min 0 min 0 W/m² 16,1 km/h (3 Bft) 100,00 %
10.02.2026 02:50 3,6 °C 2,8 °C -0,6 °C 91 % 1000,3 hPa 0,0 l/m² 0 min 0 min 0 W/m² 12,9 km/h (3 Bft) 100,00 %
10.02.2026 02:52 3,6 °C 2,8 °C -0,6 °C 91 % 1000,3 hPa 0,0 l/m² 0 min 0 min 0 W/m² 19,3 km/h (3 Bft) 100,00 %
10.02.2026 02:54 3,5 °C 2,8 °C -0,6 °C 91 % 1000,3 hPa 0,0 l/m² 0 min 0 min 0 W/m² 19,3 km/h (3 Bft) 100,00 %
10.02.2026 02:56 3,5 °C 2,8 °C -0,6 °C 91 % 1000,3 hPa 0,0 l/m² 0 min 0 min 0 W/m² 19,3 km/h (3 Bft) 100,00 %
10.02.2026 02:58 3,5 °C 2,8 °C -0,6 °C 91 % 1000,2 hPa 0,0 l/m² 0 min 0 min 0 W/m² 19,3 km/h (3 Bft) 100,00 %
10.02.2026 03:00 3,5 °C 2,8 °C -0,6 °C 91 % 1000,2 hPa 0,0 l/m² 0 min 0 min 0 W/m² 19,3 km/h (3 Bft) 100,00 %
10.02.2026 03:02 3,5 °C 2,8 °C -0,6 °C 91 % 1000,1 hPa 0,0 l/m² 0 min 0 min 0 W/m² 22,5 km/h (4 Bft) 95,74 %
10.02.2026 03:04 3,5 °C 2,8 °C -0,6 °C 91 % 1000,1 hPa 0,0 l/m² 0 min 0 min 0 W/m² 16,1 km/h (3 Bft) 100,00 %
10.02.2026 03:06 3,5 °C 2,8 °C -0,6 °C 91 % 1000,1 hPa 0,0 l/m² 0 min 0 min 0 W/m² 22,5 km/h (4 Bft) 100,00 %
10.02.2026 03:08 3,5 °C 2,8 °C -0,6 °C 91 % 1000,0 hPa 0,0 l/m² 0 min 0 min 0 W/m² 19,3 km/h (3 Bft) 100,00 %
10.02.2026 03:10 3,5 °C 2,8 °C -0,6 °C 91 % 1000,1 hPa 0,0 l/m² 0 min 0 min 0 W/m² 19,3 km/h (3 Bft) 100,00 %
10.02.2026 03:12 3,5 °C 2,8 °C -0,6 °C 91 % 1000,0 hPa 0,0 l/m² 0 min 0 min 0 W/m² 19,3 km/h (3 Bft) 100,00 %
10.02.2026 03:14 3,6 °C 2,8 °C -0,6 °C 91 % 999,9 hPa 0,0 l/m² 0 min 0 min 0 W/m² 16,1 km/h (3 Bft) 100,00 %
10.02.2026 03:16 3,6 °C 2,8 °C -0,6 °C 91 % 1000,0 hPa 0,0 l/m² 0 min 0 min 0 W/m² 19,3 km/h (3 Bft) 100,00 %
10.02.2026 03:18 3,6 °C 2,8 °C -0,6 °C 91 % 999,9 hPa 0,0 l/m² 0 min 0 min 0 W/m² 19,3 km/h (3 Bft) 100,00 %
10.02.2026 03:20 3,6 °C 2,8 °C -0,6 °C 91 % 999,9 hPa 0,0 l/m² 0 min 0 min 0 W/m² 22,5 km/h (4 Bft) 100,00 %
10.02.2026 03:22 3,6 °C 2,8 °C -0,6 °C 91 % 999,9 hPa 0,0 l/m² 0 min 0 min 0 W/m² 22,5 km/h (4 Bft) 95,74 %
10.02.2026 03:24 3,6 °C 2,8 °C -0,6 °C 91 % 999,8 hPa 0,0 l/m² 0 min 0 min 0 W/m² 16,1 km/h (3 Bft) 100,00 %
10.02.2026 03:26 3,6 °C 2,8 °C -0,6 °C 91 % 999,8 hPa 0,0 l/m² 0 min 0 min 0 W/m² 16,1 km/h (3 Bft) 100,00 %
10.02.2026 03:28 3,6 °C 2,8 °C -0,6 °C 91 % 999,8 hPa 0,0 l/m² 0 min 0 min 0 W/m² 19,3 km/h (3 Bft) 97,83 %
10.02.2026 03:30 3,6 °C 2,8 °C -0,6 °C 91 % 999,8 hPa 0,0 l/m² 0 min 0 min 0 W/m² 19,3 km/h (3 Bft) 100,00 %
10.02.2026 03:32 3,6 °C 2,8 °C -0,6 °C 91 % 999,8 hPa 0,0 l/m² 0 min 0 min 0 W/m² 16,1 km/h (3 Bft) 100,00 %
10.02.2026 03:34 3,6 °C 2,8 °C -0,6 °C 91 % 999,8 hPa 0,0 l/m² 0 min 0 min 0 W/m² 16,1 km/h (3 Bft) 97,87 %
10.02.2026 03:36 3,6 °C 2,8 °C -0,6 °C 91 % 999,8 hPa 0,0 l/m² 0 min 0 min 0 W/m² 16,1 km/h (3 Bft) 100,00 %
10.02.2026 03:38 3,6 °C 2,8 °C -0,6 °C 91 % 999,8 hPa 0,0 l/m² 0 min 0 min 0 W/m² 19,3 km/h (3 Bft) 100,00 %
10.02.2026 03:40 3,6 °C 2,8 °C -0,6 °C 91 % 999,8 hPa 0,0 l/m² 0 min 0 min 0 W/m² 16,1 km/h (3 Bft) 100,00 %
10.02.2026 03:42 3,6 °C 2,8 °C -0,6 °C 91 % 999,8 hPa 0,0 l/m² 0 min 0 min 0 W/m² 25,7 km/h (4 Bft) 97,87 %
10.02.2026 03:44 3,6 °C 2,8 °C -0,6 °C 91 % 999,7 hPa 0,0 l/m² 0 min 0 min 0 W/m² 22,5 km/h (4 Bft) 97,87 %
10.02.2026 03:46 3,6 °C 2,8 °C -0,6 °C 90 % 999,7 hPa 0,0 l/m² 0 min 0 min 0 W/m² 12,9 km/h (3 Bft) 97,87 %
10.02.2026 03:48 3,6 °C 2,8 °C -0,6 °C 91 % 999,6 hPa 0,0 l/m² 0 min 0 min 0 W/m² 19,3 km/h (3 Bft) 95,74 %
10.02.2026 03:50 3,6 °C 2,8 °C -0,6 °C 90 % 999,6 hPa 0,0 l/m² 0 min 0 min 0 W/m² 16,1 km/h (3 Bft) 97,87 %
10.02.2026 03:52 3,6 °C 2,8 °C -0,6 °C 90 % 999,5 hPa 0,0 l/m² 0 min 0 min 0 W/m² 19,3 km/h (3 Bft) 93,48 %
10.02.2026 03:54 3,6 °C 2,8 °C -0,6 °C 90 % 999,5 hPa 0,0 l/m² 0 min 0 min 0 W/m² 19,3 km/h (3 Bft) 95,74 %
10.02.2026 03:56 3,6 °C 3,3 °C -0,6 °C 91 % 999,5 hPa 0,0 l/m² 0 min 0 min 0 W/m² 29,0 km/h (5 Bft) 95,74 %
10.02.2026 03:58 3,6 °C 3,3 °C -0,6 °C 90 % 999,4 hPa 0,0 l/m² 0 min 0 min 0 W/m² 22,5 km/h (4 Bft) 97,87 %
10.02.2026 04:00 3,6 °C 2,8 °C -0,6 °C 90 % 999,4 hPa 0,0 l/m² 0 min 0 min 0 W/m² 16,1 km/h (3 Bft) 95,74 %
10.02.2026 04:02 3,6 °C 2,8 °C -0,6 °C 90 % 999,4 hPa 0,0 l/m² 0 min 0 min 0 W/m² 22,5 km/h (4 Bft) 97,87 %
10.02.2026 04:04 3,6 °C 2,8 °C -0,6 °C 90 % 999,4 hPa 0,0 l/m² 0 min 0 min 0 W/m² 19,3 km/h (3 Bft) 97,67 %
10.02.2026 04:06 3,6 °C 2,8 °C -0,6 °C 90 % 999,2 hPa 0,0 l/m² 0 min 0 min 0 W/m² 19,3 km/h (3 Bft) 97,87 %
10.02.2026 04:08 3,6 °C 2,8 °C -0,6 °C 90 % 999,3 hPa 0,0 l/m² 0 min 0 min 0 W/m² 22,5 km/h (4 Bft) 93,62 %
10.02.2026 04:10 3,6 °C 2,8 °C -0,6 °C 90 % 999,2 hPa 0,0 l/m² 0 min 0 min 0 W/m² 25,7 km/h (4 Bft) 95,74 %
10.02.2026 04:12 3,6 °C 2,8 °C -0,6 °C 90 % 999,2 hPa 0,0 l/m² 0 min 0 min 0 W/m² 19,3 km/h (3 Bft) 95,74 %
10.02.2026 04:14 3,6 °C 2,8 °C -0,6 °C 90 % 999,2 hPa 0,0 l/m² 0 min 0 min 0 W/m² 19,3 km/h (3 Bft) 55,32 %
10.02.2026 04:16 3,6 °C 2,8 °C -0,6 °C 90 % 999,2 hPa 0,0 l/m² 0 min 0 min 0 W/m² 22,5 km/h (4 Bft) 95,65 %
10.02.2026 04:18 3,6 °C 2,8 °C -0,6 °C 90 % 999,1 hPa 0,0 l/m² 0 min 0 min 0 W/m² 19,3 km/h (3 Bft) 95,74 %
10.02.2026 04:20 3,6 °C 2,8 °C -0,6 °C 90 % 999,0 hPa 0,0 l/m² 0 min 0 min 0 W/m² 22,5 km/h (4 Bft) 95,74 %
10.02.2026 04:22 3,6 °C 2,8 °C -0,6 °C 90 % 999,0 hPa 0,0 l/m² 0 min 0 min 0 W/m² 16,1 km/h (3 Bft) 95,74 %
10.02.2026 04:24 3,6 °C 2,8 °C -0,6 °C 90 % 999,0 hPa 0,0 l/m² 0 min 0 min 0 W/m² 19,3 km/h (3 Bft) 97,87 %
10.02.2026 04:26 3,6 °C 2,8 °C -0,6 °C 90 % 998,9 hPa 0,0 l/m² 0 min 0 min 0 W/m² 19,3 km/h (3 Bft) 95,74 %
10.02.2026 04:28 3,6 °C 2,8 °C -0,6 °C 90 % 998,8 hPa 0,0 l/m² 0 min 0 min 0 W/m² 16,1 km/h (3 Bft) 97,87 %
10.02.2026 04:30 3,6 °C 2,8 °C -0,6 °C 90 % 998,7 hPa 0,0 l/m² 0 min 0 min 0 W/m² 19,3 km/h (3 Bft) 97,87 %
10.02.2026 04:32 3,5 °C 2,8 °C -1,1 °C 90 % 998,7 hPa 0,0 l/m² 0 min 0 min 0 W/m² 16,1 km/h (3 Bft) 95,74 %
10.02.2026 04:34 3,5 °C 2,8 °C -0,6 °C 90 % 998,7 hPa 0,0 l/m² 0 min 0 min 0 W/m² 22,5 km/h (4 Bft) 97,87 %
10.02.2026 04:36 3,5 °C 2,8 °C -0,6 °C 90 % 998,7 hPa 0,0 l/m² 0 min 0 min 0 W/m² 22,5 km/h (4 Bft) 97,87 %
10.02.2026 04:38 3,5 °C 2,8 °C -0,6 °C 90 % 998,6 hPa 0,0 l/m² 0 min 0 min 0 W/m² 22,5 km/h (4 Bft) 97,83 %
10.02.2026 04:40 3,5 °C 2,8 °C -0,6 °C 90 % 998,6 hPa 0,0 l/m² 0 min 0 min 0 W/m² 19,3 km/h (3 Bft) 95,74 %
10.02.2026 04:42 3,5 °C 2,8 °C -0,6 °C 90 % 998,6 hPa 0,0 l/m² 0 min 0 min 0 W/m² 19,3 km/h (3 Bft) 95,74 %
10.02.2026 04:44 3,5 °C 2,8 °C -0,6 °C 90 % 998,5 hPa 0,0 l/m² 0 min 0 min 0 W/m² 25,7 km/h (4 Bft) 95,74 %
10.02.2026 04:46 3,5 °C 2,8 °C -0,6 °C 90 % 998,5 hPa 0,0 l/m² 0 min 0 min 0 W/m² 22,5 km/h (4 Bft) 93,62 %
10.02.2026 04:48 3,5 °C 2,8 °C -0,6 °C 90 % 998,5 hPa 0,0 l/m² 0 min 0 min 0 W/m² 22,5 km/h (4 Bft) 93,62 %
10.02.2026 04:50 3,5 °C 2,8 °C -0,6 °C 90 % 998,5 hPa 0,0 l/m² 0 min 0 min 0 W/m² 29,0 km/h (5 Bft) 89,36 %
10.02.2026 04:52 3,5 °C 2,8 °C -0,6 °C 90 % 998,5 hPa 0,0 l/m² 0 min 0 min 0 W/m² 25,7 km/h (4 Bft) 97,87 %
10.02.2026 04:54 3,4 °C 2,8 °C -0,6 °C 90 % 998,5 hPa 0,0 l/m² 0 min 0 min 0 W/m² 12,9 km/h (3 Bft) 97,87 %
10.02.2026 04:56 3,4 °C 2,8 °C -1,1 °C 90 % 998,5 hPa 0,0 l/m² 0 min 0 min 0 W/m² 12,9 km/h (3 Bft) 97,87 %
10.02.2026 04:58 3,4 °C 2,8 °C -1,1 °C 90 % 998,5 hPa 0,0 l/m² 0 min 0 min 0 W/m² 16,1 km/h (3 Bft) 97,87 %
10.02.2026 05:00 3,4 °C 2,8 °C -1,1 °C 90 % 998,4 hPa 0,0 l/m² 0 min 0 min 0 W/m² 19,3 km/h (3 Bft) 97,87 %
10.02.2026 05:02 3,4 °C 2,8 °C -1,1 °C 90 % 998,4 hPa 0,0 l/m² 0 min 0 min 0 W/m² 12,9 km/h (3 Bft) 95,56 %
10.02.2026 05:04 3,4 °C 2,8 °C -1,1 °C 90 % 998,4 hPa 0,0 l/m² 0 min 0 min 0 W/m² 16,1 km/h (3 Bft) 97,92 %
10.02.2026 05:06 3,4 °C 2,8 °C -1,1 °C 90 % 998,3 hPa 0,0 l/m² 0 min 0 min 0 W/m² 12,9 km/h (3 Bft) 93,62 %
10.02.2026 05:08 3,4 °C 2,8 °C -1,1 °C 90 % 998,3 hPa 0,0 l/m² 0 min 0 min 0 W/m² 22,5 km/h (4 Bft) 87,23 %
10.02.2026 05:10 3,4 °C 2,8 °C -1,1 °C 89 % 998,3 hPa 0,0 l/m² 0 min 0 min 0 W/m² 16,1 km/h (3 Bft) 51,43 %
10.02.2026 05:12 3,3 °C 2,8 °C -1,1 °C 89 % 998,2 hPa 0,0 l/m² 0 min 0 min 0 W/m² 19,3 km/h (3 Bft) 95,74 %
10.02.2026 05:14 3,3 °C 2,8 °C -1,1 °C 89 % 998,2 hPa 0,0 l/m² 0 min 0 min 0 W/m² 16,1 km/h (3 Bft) 97,87 %
10.02.2026 05:16 3,3 °C 2,8 °C -1,1 °C 90 % 998,1 hPa 0,0 l/m² 0 min 0 min 0 W/m² 16,1 km/h (3 Bft) 97,87 %
10.02.2026 05:18 3,3 °C 2,8 °C -1,1 °C 90 % 998,1 hPa 0,0 l/m² 0 min 0 min 0 W/m² 19,3 km/h (3 Bft) 96,55 %
10.02.2026 05:20 3,3 °C 2,8 °C -1,1 °C 90 % 998,1 hPa 0,0 l/m² 0 min 0 min 0 W/m² 16,1 km/h (3 Bft) 97,87 %
10.02.2026 05:22 3,3 °C 2,8 °C -1,1 °C 90 % 998,1 hPa 0,0 l/m² 0 min 0 min 0 W/m² 16,1 km/h (3 Bft) 97,87 %
10.02.2026 05:24 3,3 °C 2,8 °C -1,1 °C 90 % 998,0 hPa 0,0 l/m² 0 min 0 min 0 W/m² 19,3 km/h (3 Bft) 95,74 %
10.02.2026 05:26 3,3 °C 2,8 °C -1,1 °C 90 % 998,0 hPa 0,0 l/m² 0 min 0 min 0 W/m² 22,5 km/h (4 Bft) 95,65 %
10.02.2026 05:28 3,3 °C 2,8 °C -1,1 °C 90 % 998,0 hPa 0,0 l/m² 0 min 0 min 0 W/m² 16,1 km/h (3 Bft) 97,87 %
10.02.2026 05:30 3,3 °C 2,8 °C -1,1 °C 90 % 998,0 hPa 0,0 l/m² 0 min 0 min 0 W/m² 19,3 km/h (3 Bft) 97,87 %
10.02.2026 05:32 3,3 °C 2,8 °C -1,1 °C 90 % 997,9 hPa 0,0 l/m² 0 min 0 min 0 W/m² 12,9 km/h (3 Bft) 97,87 %
10.02.2026 05:34 3,3 °C 2,8 °C -1,1 °C 90 % 997,9 hPa 0,0 l/m² 0 min 0 min 0 W/m² 12,9 km/h (3 Bft) 97,87 %
10.02.2026 05:36 3,3 °C 2,8 °C -1,1 °C 90 % 998,0 hPa 0,0 l/m² 0 min 0 min 0 W/m² 19,3 km/h (3 Bft) 95,74 %
10.02.2026 05:38 3,3 °C 2,2 °C -1,1 °C 90 % 997,9 hPa 0,0 l/m² 0 min 0 min 0 W/m² 16,1 km/h (3 Bft) 97,87 %
10.02.2026 05:40 3,3 °C 2,2 °C -1,1 °C 90 % 997,9 hPa 0,0 l/m² 0 min 0 min 0 W/m² 16,1 km/h (3 Bft) 97,87 %
10.02.2026 05:42 3,2 °C 2,2 °C -1,1 °C 90 % 997,9 hPa 0,0 l/m² 0 min 0 min 0 W/m² 16,1 km/h (3 Bft) 95,74 %
10.02.2026 05:44 3,2 °C 2,2 °C -1,1 °C 90 % 997,8 hPa 0,0 l/m² 0 min 0 min 0 W/m² 16,1 km/h (3 Bft) 97,87 %
10.02.2026 05:46 3,2 °C 2,2 °C -1,1 °C 90 % 997,8 hPa 0,0 l/m² 0 min 0 min 0 W/m² 22,5 km/h (4 Bft) 97,87 %
10.02.2026 05:48 3,2 °C 2,2 °C -1,1 °C 90 % 997,8 hPa 0,0 l/m² 0 min 0 min 0 W/m² 16,1 km/h (3 Bft) 97,83 %
10.02.2026 05:50 3,2 °C 2,2 °C -1,1 °C 90 % 997,8 hPa 0,0 l/m² 0 min 0 min 0 W/m² 16,1 km/h (3 Bft) 97,87 %
10.02.2026 05:52 3,2 °C 2,2 °C -1,1 °C 90 % 997,7 hPa 0,0 l/m² 0 min 0 min 0 W/m² 16,1 km/h (3 Bft) 97,87 %
10.02.2026 05:54 3,2 °C 2,2 °C -1,1 °C 90 % 997,8 hPa 0,0 l/m² 0 min 0 min 0 W/m² 12,9 km/h (3 Bft) 97,87 %
10.02.2026 05:56 3,2 °C 2,2 °C -1,1 °C 90 % 997,7 hPa 0,0 l/m² 0 min 0 min 0 W/m² 12,9 km/h (3 Bft) 97,87 %
10.02.2026 05:58 3,2 °C 2,2 °C -1,1 °C 90 % 997,7 hPa 0,0 l/m² 0 min 0 min 0 W/m² 16,1 km/h (3 Bft) 97,87 %
10.02.2026 06:00 3,2 °C 2,2 °C -1,1 °C 90 % 997,7 hPa 0,0 l/m² 0 min 0 min 0 W/m² 12,9 km/h (3 Bft) 97,87 %
10.02.2026 06:02 3,2 °C 2,2 °C -1,1 °C 90 % 997,7 hPa 0,0 l/m² 0 min 0 min 0 W/m² 9,7 km/h (2 Bft) 95,74 %
10.02.2026 06:04 3,2 °C 2,2 °C -1,1 °C 90 % 997,7 hPa 0,0 l/m² 0 min 0 min 0 W/m² 16,1 km/h (3 Bft) 97,87 %
10.02.2026 06:07 3,1 °C 2,2 °C -1,1 °C 90 % 997,6 hPa 0,0 l/m² 0 min 0 min 0 W/m² 19,3 km/h (3 Bft) 98,33 %
10.02.2026 06:08 3,1 °C 2,2 °C -1,1 °C 90 % 997,6 hPa 0,0 l/m² 0 min 0 min 0 W/m² 9,7 km/h (2 Bft) 95,83 %
10.02.2026 06:12 3,1 °C 2,2 °C -1,1 °C 90 % 997,5 hPa 0,0 l/m² 0 min 0 min 0 W/m² 9,7 km/h (2 Bft) 100,00 %
10.02.2026 06:14 3,1 °C 2,2 °C -1,1 °C 90 % 997,4 hPa 0,0 l/m² 0 min 0 min 0 W/m² 9,7 km/h (2 Bft) 100,00 %
10.02.2026 06:16 3,1 °C 2,2 °C -1,1 °C 90 % 997,4 hPa 0,0 l/m² 0 min 0 min 0 W/m² 12,9 km/h (3 Bft) 100,00 %
10.02.2026 06:18 3,1 °C 2,2 °C -1,1 °C 90 % 997,4 hPa 0,0 l/m² 0 min 0 min 0 W/m² 12,9 km/h (3 Bft) 97,87 %
10.02.2026 06:20 3,1 °C 2,2 °C -1,1 °C 90 % 997,4 hPa 0,0 l/m² 0 min 0 min 0 W/m² 12,9 km/h (3 Bft) 100,00 %
10.02.2026 06:22 3,0 °C 2,2 °C -1,1 °C 90 % 997,4 hPa 0,0 l/m² 0 min 0 min 0 W/m² 12,9 km/h (3 Bft) 100,00 %
10.02.2026 06:24 3,0 °C 2,2 °C -1,1 °C 90 % 997,4 hPa 0,0 l/m² 0 min 0 min 0 W/m² 12,9 km/h (3 Bft) 100,00 %
10.02.2026 06:26 3,0 °C 2,2 °C -1,1 °C 90 % 997,4 hPa 0,0 l/m² 0 min 0 min 0 W/m² 16,1 km/h (3 Bft) 97,87 %
10.02.2026 06:28 3,0 °C 2,2 °C -1,1 °C 90 % 997,3 hPa 0,0 l/m² 0 min 0 min 0 W/m² 12,9 km/h (3 Bft) 93,62 %
10.02.2026 06:30 3,0 °C 2,2 °C -1,1 °C 90 % 997,3 hPa 0,0 l/m² 0 min 0 min 0 W/m² 16,1 km/h (3 Bft) 100,00 %
10.02.2026 06:32 3,0 °C 2,2 °C -1,1 °C 90 % 997,3 hPa 0,0 l/m² 0 min 0 min 0 W/m² 19,3 km/h (3 Bft) 100,00 %
10.02.2026 06:34 3,0 °C 2,2 °C -1,1 °C 90 % 997,2 hPa 0,0 l/m² 0 min 0 min 0 W/m² 22,5 km/h (4 Bft) 100,00 %
10.02.2026 06:36 3,0 °C 2,2 °C -1,1 °C 91 % 997,2 hPa 0,0 l/m² 0 min 0 min 0 W/m² 22,5 km/h (4 Bft) 95,74 %
10.02.2026 06:38 3,0 °C 2,2 °C -1,1 °C 91 % 997,2 hPa 0,0 l/m² 0 min 0 min 0 W/m² 16,1 km/h (3 Bft) 100,00 %
10.02.2026 06:40 3,0 °C 2,2 °C -1,1 °C 91 % 997,1 hPa 0,0 l/m² 0 min 0 min 0 W/m² 16,1 km/h (3 Bft) 95,74 %
10.02.2026 06:42 3,0 °C 2,2 °C -1,1 °C 91 % 997,1 hPa 0,0 l/m² 0 min 0 min 0 W/m² 16,1 km/h (3 Bft) 97,87 %
10.02.2026 06:44 3,1 °C 2,8 °C -1,1 °C 91 % 997,1 hPa 0,0 l/m² 0 min 0 min 0 W/m² 19,3 km/h (3 Bft) 95,74 %
10.02.2026 06:46 3,1 °C 2,8 °C -1,1 °C 91 % 997,1 hPa 0,0 l/m² 0 min 0 min 0 W/m² 16,1 km/h (3 Bft) 97,83 %
10.02.2026 06:48 3,1 °C 2,8 °C -1,1 °C 91 % 997,0 hPa 0,0 l/m² 0 min 0 min 0 W/m² 16,1 km/h (3 Bft) 97,87 %
10.02.2026 06:50 3,1 °C 2,8 °C -1,1 °C 91 % 997,0 hPa 0,0 l/m² 0 min 0 min 0 W/m² 19,3 km/h (3 Bft) 97,87 %
10.02.2026 06:52 3,1 °C 2,8 °C -1,1 °C 91 % 997,0 hPa 0,0 l/m² 0 min 0 min 0 W/m² 12,9 km/h (3 Bft) 97,87 %
10.02.2026 06:54 3,1 °C 2,8 °C -1,1 °C 91 % 997,0 hPa 0,0 l/m² 0 min 0 min 0 W/m² 25,7 km/h (4 Bft) 78,72 %
10.02.2026 06:56 3,2 °C 2,8 °C -1,1 °C 91 % 997,0 hPa 0,0 l/m² 0 min 0 min 0 W/m² 12,9 km/h (3 Bft) 66,67 %
10.02.2026 06:58 3,2 °C 2,8 °C -1,1 °C 91 % 996,9 hPa 0,0 l/m² 0 min 0 min 0 W/m² 19,3 km/h (3 Bft) 97,87 %
10.02.2026 07:00 3,2 °C 2,8 °C -1,1 °C 91 % 997,0 hPa 0,0 l/m² 0 min 0 min 0 W/m² 12,9 km/h (3 Bft) 97,87 %
10.02.2026 07:02 3,2 °C 2,8 °C -1,1 °C 91 % 996,9 hPa 0,0 l/m² 0 min 0 min 0 W/m² 12,9 km/h (3 Bft) 97,87 %
10.02.2026 07:04 3,2 °C 2,8 °C -1,1 °C 91 % 996,9 hPa 0,0 l/m² 0 min 0 min 0 W/m² 16,1 km/h (3 Bft) 97,87 %
10.02.2026 07:06 3,2 °C 2,8 °C -1,1 °C 91 % 996,8 hPa 0,0 l/m² 0 min 0 min 0 W/m² 9,7 km/h (2 Bft) 93,62 %
10.02.2026 07:08 3,3 °C 2,8 °C -1,1 °C 91 % 996,9 hPa 0,0 l/m² 0 min 0 min 0 W/m² 19,3 km/h (3 Bft) 97,87 %
10.02.2026 07:10 3,3 °C 2,8 °C -1,1 °C 91 % 996,8 hPa 0,0 l/m² 0 min 0 min 0 W/m² 16,1 km/h (3 Bft) 97,83 %
10.02.2026 07:12 3,3 °C 2,8 °C -1,1 °C 91 % 996,9 hPa 0,0 l/m² 0 min 0 min 0 W/m² 16,1 km/h (3 Bft) 97,87 %
10.02.2026 07:14 3,3 °C 2,8 °C -1,1 °C 91 % 996,8 hPa 0,0 l/m² 0 min 0 min 0 W/m² 12,9 km/h (3 Bft) 97,87 %
10.02.2026 07:16 3,3 °C 2,8 °C -1,1 °C 91 % 996,7 hPa 0,0 l/m² 0 min 0 min 0 W/m² 16,1 km/h (3 Bft) 95,74 %
10.02.2026 07:18 3,3 °C 2,8 °C -1,1 °C 91 % 996,8 hPa 0,0 l/m² 0 min 0 min 0 W/m² 12,9 km/h (3 Bft) 97,14 %
10.02.2026 07:20 3,3 °C 2,8 °C -0,6 °C 91 % 996,8 hPa 0,0 l/m² 0 min 0 min 0 W/m² 19,3 km/h (3 Bft) 96,61 %
10.02.2026 07:22 3,3 °C 2,8 °C -0,6 °C 91 % 996,8 hPa 0,0 l/m² 0 min 0 min 0 W/m² 12,9 km/h (3 Bft) 100,00 %
10.02.2026 07:24 3,4 °C 2,8 °C -0,6 °C 91 % 996,8 hPa 0,0 l/m² 0 min 0 min 0 W/m² 16,1 km/h (3 Bft) 97,87 %
10.02.2026 07:26 3,4 °C 2,8 °C -0,6 °C 91 % 996,7 hPa 0,0 l/m² 0 min 0 min 0 W/m² 16,1 km/h (3 Bft) 95,74 %
10.02.2026 07:28 3,4 °C 2,8 °C -0,6 °C 91 % 996,8 hPa 0,0 l/m² 0 min 0 min 0 W/m² 16,1 km/h (3 Bft) 97,87 %
10.02.2026 07:30 3,4 °C 2,8 °C -0,6 °C 91 % 996,7 hPa 0,0 l/m² 0 min 0 min 0 W/m² 16,1 km/h (3 Bft) 95,74 %
10.02.2026 07:32 3,4 °C 2,8 °C -0,6 °C 91 % 996,7 hPa 0,0 l/m² 0 min 0 min 0 W/m² 16,1 km/h (3 Bft) 95,74 %
10.02.2026 07:34 3,5 °C 2,8 °C -0,6 °C 91 % 996,7 hPa 0,0 l/m² 0 min 0 min 0 W/m² 16,1 km/h (3 Bft) 97,87 %
10.02.2026 07:36 3,5 °C 3,3 °C -0,6 °C 91 % 996,7 hPa 0,0 l/m² 0 min 0 min 0 W/m² 19,3 km/h (3 Bft) 93,48 %
10.02.2026 07:38 3,5 °C 2,8 °C -0,6 °C 91 % 996,6 hPa 0,0 l/m² 0 min 0 min 0 W/m² 19,3 km/h (3 Bft) 97,87 %
10.02.2026 07:40 3,6 °C 3,3 °C -0,6 °C 91 % 996,6 hPa 0,0 l/m² 0 min 0 min 0 W/m² 16,1 km/h (3 Bft) 97,87 %
10.02.2026 07:42 3,6 °C 3,3 °C -0,6 °C 91 % 996,6 hPa 0,0 l/m² 0 min 0 min 0 W/m² 22,5 km/h (4 Bft) 95,74 %
10.02.2026 07:44 3,6 °C 3,3 °C -0,6 °C 91 % 996,6 hPa 0,0 l/m² 0 min 0 min 0 W/m² 19,3 km/h (3 Bft) 91,49 %
10.02.2026 07:46 3,6 °C 3,3 °C -0,6 °C 91 % 996,5 hPa 0,0 l/m² 0 min 0 min 0 W/m² 19,3 km/h (3 Bft) 97,87 %
10.02.2026 07:48 3,6 °C 3,3 °C -0,6 °C 91 % 996,6 hPa 0,0 l/m² 0 min 0 min 0 W/m² 19,3 km/h (3 Bft) 95,74 %
10.02.2026 07:50 3,7 °C 3,3 °C -0,6 °C 91 % 996,6 hPa 0,0 l/m² 0 min 2 min 0 W/m² 16,1 km/h (3 Bft) 95,74 %
10.02.2026 07:52 3,7 °C 3,3 °C -0,6 °C 91 % 996,6 hPa 0,0 l/m² 0 min 0 min 0 W/m² 19,3 km/h (3 Bft) 95,74 %
10.02.2026 07:54 3,7 °C 3,3 °C -0,6 °C 91 % 996,6 hPa 0,0 l/m² 0 min 0 min 0 W/m² 25,7 km/h (4 Bft) 95,74 %
10.02.2026 07:56 3,7 °C 3,3 °C -0,6 °C 91 % 996,6 hPa 0,0 l/m² 0 min 2 min 0 W/m² 22,5 km/h (4 Bft) 95,74 %
10.02.2026 07:58 3,7 °C 3,3 °C -0,6 °C 91 % 996,6 hPa 0,0 l/m² 0 min 0 min 0 W/m² 19,3 km/h (3 Bft) 95,65 %
10.02.2026 08:00 3,8 °C 3,3 °C -0,6 °C 91 % 996,6 hPa 0,0 l/m² 0 min 0 min 0 W/m² 16,1 km/h (3 Bft) 97,87 %
10.02.2026 08:02 3,8 °C 3,3 °C -0,6 °C 91 % 996,6 hPa 0,0 l/m² 0 min 0 min 0 W/m² 16,1 km/h (3 Bft) 95,74 %
10.02.2026 08:04 3,8 °C 3,3 °C -0,6 °C 91 % 996,5 hPa 0,0 l/m² 0 min 0 min 0 W/m² 16,1 km/h (3 Bft) 95,24 %
10.02.2026 08:06 3,8 °C 3,3 °C -0,6 °C 91 % 996,5 hPa 0,0 l/m² 0 min 0 min 0 W/m² 19,3 km/h (3 Bft) 98,31 %
10.02.2026 08:08 3,8 °C 3,3 °C -0,6 °C 91 % 996,5 hPa 0,0 l/m² 0 min 0 min 0 W/m² 19,3 km/h (3 Bft) 97,56 %
10.02.2026 08:10 3,8 °C 3,3 °C -0,6 °C 91 % 996,5 hPa 0,0 l/m² 0 min 0 min 0 W/m² 19,3 km/h (3 Bft) 97,56 %
10.02.2026 08:12 3,8 °C 3,3 °C -1,1 °C 91 % 996,4 hPa 0,0 l/m² 0 min 2 min 0 W/m² 16,1 km/h (3 Bft) 97,87 %
10.02.2026 08:14 3,8 °C 3,3 °C -1,1 °C 91 % 996,5 hPa 0,0 l/m² 0 min 2 min 5 W/m² 19,3 km/h (3 Bft) 95,74 %
10.02.2026 08:16 3,8 °C 3,3 °C -1,1 °C 91 % 996,5 hPa 0,0 l/m² 0 min 2 min 5 W/m² 19,3 km/h (3 Bft) 97,83 %
10.02.2026 08:18 3,8 °C 3,3 °C -1,1 °C 91 % 996,4 hPa 0,0 l/m² 0 min 2 min 5 W/m² 25,7 km/h (4 Bft) 97,87 %
10.02.2026 08:20 3,9 °C 3,3 °C -1,1 °C 91 % 996,4 hPa 0,0 l/m² 0 min 0 min 7 W/m² 16,1 km/h (3 Bft) 93,62 %
10.02.2026 08:22 3,9 °C 3,3 °C -1,1 °C 91 % 996,4 hPa 0,0 l/m² 0 min 0 min 8 W/m² 22,5 km/h (4 Bft) 97,87 %
10.02.2026 08:24 3,9 °C 3,3 °C -1,1 °C 91 % 996,4 hPa 0,2 l/m² 0 min 2 min 10 W/m² 16,1 km/h (3 Bft) 97,87 %
10.02.2026 08:26 3,9 °C 3,3 °C -1,1 °C 91 % 996,4 hPa 0,0 l/m² 0 min 0 min 11 W/m² 16,1 km/h (3 Bft) 97,87 %
10.02.2026 08:28 3,9 °C 3,3 °C -1,1 °C 91 % 996,4 hPa 0,0 l/m² 0 min 0 min 11 W/m² 12,9 km/h (3 Bft) 97,87 %
10.02.2026 08:30 3,9 °C 3,3 °C -1,1 °C 92 % 996,5 hPa 0,0 l/m² 0 min 2 min 11 W/m² 22,5 km/h (4 Bft) 100,00 %
10.02.2026 08:32 3,9 °C 3,3 °C -1,1 °C 92 % 996,5 hPa 0,0 l/m² 0 min 0 min 12 W/m² 19,3 km/h (3 Bft) 97,87 %
10.02.2026 08:34 3,9 °C 3,3 °C -1,1 °C 92 % 996,4 hPa 0,0 l/m² 0 min 2 min 13 W/m² 25,7 km/h (4 Bft) 97,87 %
10.02.2026 08:36 3,9 °C 3,3 °C -1,1 °C 92 % 996,4 hPa 0,0 l/m² 0 min 0 min 16 W/m² 22,5 km/h (4 Bft) 100,00 %
10.02.2026 08:38 3,9 °C 3,3 °C -1,1 °C 92 % 996,4 hPa 0,0 l/m² 0 min 2 min 18 W/m² 22,5 km/h (4 Bft) 100,00 %
10.02.2026 08:40 3,9 °C 3,3 °C -1,1 °C 92 % 996,4 hPa 0,0 l/m² 0 min 2 min 20 W/m² 19,3 km/h (3 Bft) 97,87 %
10.02.2026 08:42 3,9 °C 3,3 °C -1,1 °C 92 % 996,4 hPa 0,0 l/m² 0 min 2 min 22 W/m² 35,4 km/h (5 Bft) 95,74 %
10.02.2026 08:44 3,9 °C 3,3 °C -1,1 °C 92 % 996,3 hPa 0,0 l/m² 0 min 0 min 24 W/m² 22,5 km/h (4 Bft) 100,00 %
10.02.2026 08:46 4,0 °C 3,3 °C -1,1 °C 92 % 996,3 hPa 0,0 l/m² 0 min 0 min 26 W/m² 22,5 km/h (4 Bft) 97,87 %
10.02.2026 08:48 4,0 °C 3,3 °C -0,6 °C 92 % 996,3 hPa 0,2 l/m² 0 min 2 min 28 W/m² 32,2 km/h (5 Bft) 100,00 %
10.02.2026 08:50 4,0 °C 3,3 °C -0,6 °C 92 % 996,3 hPa 0,0 l/m² 0 min 0 min 32 W/m² 35,4 km/h (5 Bft) 95,74 %
10.02.2026 08:52 4,1 °C 3,3 °C -0,6 °C 93 % 996,3 hPa 0,0 l/m² 0 min 0 min 36 W/m² 22,5 km/h (4 Bft) 97,87 %
10.02.2026 08:54 4,1 °C 3,3 °C -0,6 °C 93 % 996,2 hPa 0,0 l/m² 0 min 0 min 36 W/m² 19,3 km/h (3 Bft) 97,87 %
10.02.2026 08:56 4,1 °C 3,3 °C -0,6 °C 93 % 996,2 hPa 0,0 l/m² 0 min 0 min 32 W/m² 25,7 km/h (4 Bft) 100,00 %
10.02.2026 08:58 4,1 °C 3,3 °C -0,6 °C 93 % 996,2 hPa 0,0 l/m² 0 min 0 min 29 W/m² 29,0 km/h (5 Bft) 100,00 %
10.02.2026 09:00 4,1 °C 3,3 °C -0,6 °C 93 % 996,3 hPa 0,0 l/m² 0 min 0 min 28 W/m² 19,3 km/h (3 Bft) 100,00 %
10.02.2026 09:02 4,1 °C 3,3 °C -0,6 °C 93 % 996,2 hPa 0,0 l/m² 0 min 0 min 31 W/m² 16,1 km/h (3 Bft) 100,00 %
10.02.2026 09:04 4,1 °C 3,3 °C -0,6 °C 93 % 996,1 hPa 0,0 l/m² 0 min 0 min 33 W/m² 19,3 km/h (3 Bft) 97,87 %
10.02.2026 09:06 4,1 °C 3,3 °C -0,6 °C 93 % 996,2 hPa 0,0 l/m² 0 min 0 min 36 W/m² 16,1 km/h (3 Bft) 100,00 %
10.02.2026 09:08 4,1 °C 3,9 °C -0,6 °C 93 % 996,1 hPa 0,0 l/m² 0 min 2 min 37 W/m² 16,1 km/h (3 Bft) 100,00 %
10.02.2026 09:10 4,1 °C 3,9 °C -0,6 °C 93 % 996,2 hPa 0,0 l/m² 0 min 0 min 37 W/m² 22,5 km/h (4 Bft) 95,65 %
10.02.2026 09:12 4,2 °C 3,9 °C -0,6 °C 93 % 996,1 hPa 0,0 l/m² 0 min 0 min 37 W/m² 22,5 km/h (4 Bft) 95,74 %
10.02.2026 09:14 4,2 °C 3,9 °C -0,6 °C 93 % 996,1 hPa 0,0 l/m² 0 min 0 min 37 W/m² 19,3 km/h (3 Bft) 97,87 %
10.02.2026 09:16 4,2 °C 3,9 °C -0,6 °C 93 % 996,1 hPa 0,0 l/m² 0 min 0 min 39 W/m² 19,3 km/h (3 Bft) 97,87 %
10.02.2026 09:18 4,2 °C 3,9 °C -0,6 °C 93 % 996,1 hPa 0,0 l/m² 0 min 0 min 40 W/m² 22,5 km/h (4 Bft) 97,87 %
10.02.2026 09:20 4,2 °C 3,9 °C -0,6 °C 94 % 996,1 hPa 0,0 l/m² 0 min 0 min 44 W/m² 22,5 km/h (4 Bft) 91,49 %
10.02.2026 09:22 4,2 °C 3,9 °C -0,6 °C 94 % 996,1 hPa 0,0 l/m² 0 min 0 min 48 W/m² 22,5 km/h (4 Bft) 91,49 %
10.02.2026 09:24 4,3 °C 3,9 °C -0,6 °C 94 % 996,1 hPa 0,0 l/m² 0 min 0 min 59 W/m² 16,1 km/h (3 Bft) 95,74 %
10.02.2026 09:26 4,3 °C 3,9 °C -0,6 °C 94 % 996,0 hPa 0,0 l/m² 0 min 0 min 61 W/m² 12,9 km/h (3 Bft) 95,74 %
10.02.2026 09:28 4,3 °C 3,9 °C -0,6 °C 94 % 996,0 hPa 0,0 l/m² 0 min 0 min 56 W/m² 25,7 km/h (4 Bft) 95,74 %
10.02.2026 09:30 4,3 °C 3,9 °C -0,6 °C 94 % 996,0 hPa 0,0 l/m² 0 min 0 min 56 W/m² 19,3 km/h (3 Bft) 95,74 %
10.02.2026 09:32 4,3 °C 3,9 °C -0,6 °C 94 % 996,0 hPa 0,0 l/m² 0 min 0 min 54 W/m² 19,3 km/h (3 Bft) 93,62 %
10.02.2026 09:34 4,4 °C 3,9 °C 0,0 °C 94 % 995,9 hPa 0,0 l/m² 0 min 0 min 55 W/m² 19,3 km/h (3 Bft) 95,65 %
10.02.2026 09:36 4,4 °C 3,9 °C 0,0 °C 94 % 995,9 hPa 0,0 l/m² 0 min 0 min 56 W/m² 16,1 km/h (3 Bft) 95,74 %
10.02.2026 09:38 4,4 °C 3,9 °C 0,0 °C 94 % 995,9 hPa 0,0 l/m² 0 min 0 min 58 W/m² 22,5 km/h (4 Bft) 95,74 %
10.02.2026 09:40 4,4 °C 4,4 °C 0,0 °C 94 % 995,9 hPa 0,0 l/m² 0 min 0 min 57 W/m² 16,1 km/h (3 Bft) 95,74 %
10.02.2026 09:42 4,4 °C 3,9 °C 0,0 °C 94 % 995,9 hPa 0,0 l/m² 0 min 0 min 53 W/m² 22,5 km/h (4 Bft) 95,74 %
10.02.2026 09:44 4,4 °C 4,4 °C 0,0 °C 94 % 995,9 hPa 0,0 l/m² 0 min 0 min 51 W/m² 22,5 km/h (4 Bft) 95,74 %
10.02.2026 09:46 4,4 °C 3,9 °C 0,0 °C 94 % 995,9 hPa 0,0 l/m² 0 min 0 min 47 W/m² 22,5 km/h (4 Bft) 95,74 %
10.02.2026 09:48 4,4 °C 3,9 °C 0,0 °C 94 % 995,9 hPa 0,0 l/m² 0 min 0 min 48 W/m² 22,5 km/h (4 Bft) 93,62 %
10.02.2026 09:50 4,4 °C 4,4 °C 0,0 °C 94 % 995,8 hPa 0,0 l/m² 0 min 0 min 50 W/m² 29,0 km/h (5 Bft) 91,49 %
10.02.2026 09:52 4,4 °C 3,9 °C 0,0 °C 94 % 995,8 hPa 0,0 l/m² 0 min 0 min 49 W/m² 25,7 km/h (4 Bft) 97,87 %
10.02.2026 09:54 4,4 °C 3,9 °C 0,0 °C 94 % 995,8 hPa 0,0 l/m² 0 min 0 min 45 W/m² 19,3 km/h (3 Bft) 97,87 %
10.02.2026 09:56 4,4 °C 3,9 °C 0,0 °C 94 % 995,8 hPa 0,0 l/m² 0 min 0 min 46 W/m² 22,5 km/h (4 Bft) 100,00 %
10.02.2026 09:58 4,4 °C 4,4 °C 0,0 °C 94 % 995,7 hPa 0,0 l/m² 0 min 0 min 50 W/m² 22,5 km/h (4 Bft) 97,44 %
10.02.2026 10:00 4,4 °C 4,4 °C 0,0 °C 94 % 995,8 hPa 0,0 l/m² 0 min 0 min 55 W/m² 29,0 km/h (5 Bft) 97,87 %
10.02.2026 10:02 4,4 °C 4,4 °C 0,0 °C 94 % 995,8 hPa 0,0 l/m² 0 min 0 min 60 W/m² 25,7 km/h (4 Bft) 100,00 %
10.02.2026 10:04 4,5 °C 4,4 °C 0,0 °C 94 % 995,7 hPa 0,0 l/m² 0 min 0 min 63 W/m² 19,3 km/h (3 Bft) 100,00 %
10.02.2026 10:06 4,5 °C 4,4 °C 0,0 °C 94 % 995,8 hPa 0,0 l/m² 0 min 0 min 66 W/m² 29,0 km/h (5 Bft) 100,00 %
10.02.2026 10:08 4,5 °C 4,4 °C 0,0 °C 94 % 995,8 hPa 0,0 l/m² 0 min 0 min 66 W/m² 22,5 km/h (4 Bft) 100,00 %
10.02.2026 10:10 4,5 °C 4,4 °C 0,0 °C 94 % 995,8 hPa 0,0 l/m² 0 min 0 min 65 W/m² 25,7 km/h (4 Bft) 100,00 %
10.02.2026 10:12 4,6 °C 4,4 °C 0,0 °C 94 % 995,8 hPa 0,0 l/m² 0 min 0 min 70 W/m² 25,7 km/h (4 Bft) 97,87 %
10.02.2026 10:14 4,6 °C 4,4 °C 0,0 °C 94 % 995,7 hPa 0,0 l/m² 0 min 0 min 80 W/m² 19,3 km/h (3 Bft) 100,00 %
10.02.2026 10:16 4,6 °C 4,4 °C 0,0 °C 94 % 995,7 hPa 0,0 l/m² 0 min 0 min 81 W/m² 16,1 km/h (3 Bft) 100,00 %
10.02.2026 10:18 4,6 °C 4,4 °C 0,0 °C 94 % 995,7 hPa 0,0 l/m² 0 min 0 min 82 W/m² 22,5 km/h (4 Bft) 100,00 %
10.02.2026 10:20 4,6 °C 4,4 °C 0,0 °C 94 % 995,7 hPa 0,0 l/m² 0 min 0 min 84 W/m² 25,7 km/h (4 Bft) 100,00 %
10.02.2026 10:22 4,7 °C 4,4 °C 0,0 °C 94 % 995,6 hPa 0,0 l/m² 0 min 0 min 84 W/m² 25,7 km/h (4 Bft) 100,00 %
10.02.2026 10:24 4,7 °C 5,0 °C 0,0 °C 94 % 995,7 hPa 0,0 l/m² 0 min 0 min 80 W/m² 19,3 km/h (3 Bft) 100,00 %
10.02.2026 10:26 4,7 °C 5,0 °C 0,0 °C 94 % 995,6 hPa 0,0 l/m² 0 min 0 min 76 W/m² 19,3 km/h (3 Bft) 97,83 %
10.02.2026 10:28 4,7 °C 4,4 °C 0,0 °C 94 % 995,6 hPa 0,0 l/m² 0 min 0 min 68 W/m² 29,0 km/h (5 Bft) 100,00 %
10.02.2026 10:30 4,7 °C 4,4 °C 0,0 °C 94 % 995,6 hPa 0,0 l/m² 0 min 0 min 62 W/m² 16,1 km/h (3 Bft) 100,00 %
10.02.2026 10:32 4,8 °C 5,0 °C 0,0 °C 94 % 995,5 hPa 0,0 l/m² 0 min 0 min 63 W/m² 22,5 km/h (4 Bft) 100,00 %
10.02.2026 10:34 4,8 °C 5,0 °C 0,0 °C 94 % 995,5 hPa 0,0 l/m² 0 min 0 min 67 W/m² 19,3 km/h (3 Bft) 100,00 %
10.02.2026 10:36 4,8 °C 5,0 °C 0,0 °C 94 % 995,4 hPa 0,0 l/m² 0 min 0 min 67 W/m² 25,7 km/h (4 Bft) 100,00 %
10.02.2026 10:38 4,8 °C 5,0 °C 0,0 °C 94 % 995,5 hPa 0,0 l/m² 0 min 0 min 67 W/m² 16,1 km/h (3 Bft) 100,00 %
10.02.2026 10:40 4,8 °C 5,0 °C 0,0 °C 94 % 995,5 hPa 0,0 l/m² 0 min 0 min 66 W/m² 22,5 km/h (4 Bft) 97,87 %
10.02.2026 10:42 4,8 °C 5,0 °C 0,0 °C 94 % 995,5 hPa 0,0 l/m² 0 min 0 min 62 W/m² 25,7 km/h (4 Bft) 97,87 %
10.02.2026 10:44 4,9 °C 5,0 °C 0,0 °C 94 % 995,4 hPa 0,0 l/m² 0 min 0 min 58 W/m² 19,3 km/h (3 Bft) 97,87 %
10.02.2026 10:46 4,9 °C 5,0 °C 0,0 °C 94 % 995,4 hPa 0,0 l/m² 0 min 0 min 57 W/m² 19,3 km/h (3 Bft) 95,74 %
10.02.2026 10:48 4,9 °C 4,4 °C 0,0 °C 94 % 995,4 hPa 0,0 l/m² 0 min 0 min 53 W/m² 22,5 km/h (4 Bft) 53,33 %
10.02.2026 10:50 4,9 °C 4,4 °C 0,0 °C 94 % 995,3 hPa 0,0 l/m² 0 min 0 min 52 W/m² 22,5 km/h (4 Bft) 97,78 %
10.02.2026 10:52 4,9 °C 4,4 °C 0,0 °C 94 % 995,3 hPa 0,0 l/m² 0 min 0 min 53 W/m² 16,1 km/h (3 Bft) 95,74 %
10.02.2026 10:54 4,9 °C 5,0 °C 0,0 °C 94 % 995,4 hPa 0,0 l/m² 0 min 0 min 56 W/m² 22,5 km/h (4 Bft) 91,49 %
10.02.2026 10:56 4,9 °C 5,0 °C 0,0 °C 94 % 995,3 hPa 0,0 l/m² 0 min 0 min 60 W/m² 25,7 km/h (4 Bft) 97,87 %
10.02.2026 10:58 4,9 °C 5,0 °C 0,0 °C 94 % 995,3 hPa 0,0 l/m² 0 min 0 min 58 W/m² 22,5 km/h (4 Bft) 97,87 %
10.02.2026 11:00 4,9 °C 5,0 °C 0,0 °C 93 % 995,3 hPa 0,0 l/m² 0 min 0 min 57 W/m² 22,5 km/h (4 Bft) 97,87 %
10.02.2026 11:02 5,0 °C 5,0 °C 0,6 °C 93 % 995,3 hPa 0,0 l/m² 0 min 0 min 54 W/m² 16,1 km/h (3 Bft) 97,87 %
10.02.2026 11:04 5,0 °C 5,0 °C 0,6 °C 93 % 995,3 hPa 0,0 l/m² 0 min 0 min 52 W/m² 16,1 km/h (3 Bft) 97,87 %
10.02.2026 11:06 5,0 °C 5,0 °C 0,6 °C 93 % 995,2 hPa 0,0 l/m² 0 min 0 min 48 W/m² 29,0 km/h (5 Bft) 95,74 %
10.02.2026 11:08 5,1 °C 5,0 °C 0,6 °C 93 % 995,3 hPa 0,0 l/m² 0 min 0 min 50 W/m² 22,5 km/h (4 Bft) 97,92 %
10.02.2026 11:10 5,1 °C 5,0 °C 0,6 °C 93 % 995,2 hPa 0,0 l/m² 0 min 0 min 55 W/m² 19,3 km/h (3 Bft) 95,65 %
10.02.2026 11:12 5,1 °C 5,0 °C 0,6 °C 93 % 995,3 hPa 0,0 l/m² 0 min 0 min 61 W/m² 19,3 km/h (3 Bft) 97,87 %
10.02.2026 11:14 5,1 °C 5,0 °C 0,6 °C 93 % 995,2 hPa 0,0 l/m² 0 min 0 min 69 W/m² 19,3 km/h (3 Bft) 95,74 %
10.02.2026 11:16 5,1 °C 5,0 °C 0,6 °C 93 % 995,2 hPa 0,0 l/m² 0 min 0 min 79 W/m² 16,1 km/h (3 Bft) 95,74 %
10.02.2026 11:18 5,2 °C 5,0 °C 0,6 °C 93 % 995,3 hPa 0,0 l/m² 0 min 0 min 89 W/m² 19,3 km/h (3 Bft) 93,62 %
10.02.2026 11:20 5,2 °C 5,6 °C 0,6 °C 93 % 995,3 hPa 0,0 l/m² 0 min 0 min 98 W/m² 25,7 km/h (4 Bft) 95,74 %
10.02.2026 11:22 5,2 °C 5,6 °C 0,6 °C 93 % 995,2 hPa 0,0 l/m² 0 min 0 min 102 W/m² 22,5 km/h (4 Bft) 93,62 %
10.02.2026 11:24 5,3 °C 5,6 °C 0,6 °C 93 % 995,2 hPa 0,0 l/m² 0 min 0 min 100 W/m² 19,3 km/h (3 Bft) 95,74 %
10.02.2026 11:26 5,3 °C 5,6 °C 0,6 °C 93 % 995,2 hPa 0,0 l/m² 0 min 0 min 100 W/m² 22,5 km/h (4 Bft) 95,74 %
10.02.2026 11:28 5,3 °C 5,6 °C 0,6 °C 93 % 995,2 hPa 0,0 l/m² 0 min 0 min 96 W/m² 22,5 km/h (4 Bft) 91,49 %
10.02.2026 11:30 5,4 °C 5,6 °C 0,6 °C 93 % 995,2 hPa 0,0 l/m² 0 min 0 min 96 W/m² 16,1 km/h (3 Bft) 95,74 %
10.02.2026 11:32 5,4 °C 5,6 °C 0,6 °C 93 % 995,2 hPa 0,0 l/m² 0 min 0 min 97 W/m² 19,3 km/h (3 Bft) 93,62 %
10.02.2026 11:34 5,4 °C 5,6 °C 0,6 °C 93 % 995,2 hPa 0,0 l/m² 0 min 0 min 98 W/m² 22,5 km/h (4 Bft) 97,83 %
10.02.2026 11:36 5,4 °C 5,6 °C 0,6 °C 93 % 995,1 hPa 0,0 l/m² 0 min 0 min 99 W/m² 22,5 km/h (4 Bft) 97,87 %
10.02.2026 11:38 5,5 °C 5,6 °C 1,1 °C 93 % 995,1 hPa 0,0 l/m² 0 min 0 min 94 W/m² 16,1 km/h (3 Bft) 95,74 %
10.02.2026 11:40 5,5 °C 5,6 °C 1,1 °C 93 % 995,0 hPa 0,0 l/m² 0 min 0 min 86 W/m² 12,9 km/h (3 Bft) 95,74 %
10.02.2026 11:42 5,6 °C 5,6 °C 1,1 °C 93 % 995,1 hPa 0,0 l/m² 0 min 0 min 79 W/m² 22,5 km/h (4 Bft) 93,62 %
10.02.2026 11:44 5,6 °C 5,6 °C 1,7 °C 93 % 995,1 hPa 0,0 l/m² 0 min 0 min 77 W/m² 22,5 km/h (4 Bft) 95,74 %
10.02.2026 11:46 5,6 °C 5,6 °C 1,7 °C 93 % 995,1 hPa 0,0 l/m² 0 min 0 min 83 W/m² 12,9 km/h (3 Bft) 97,87 %
10.02.2026 11:48 5,6 °C 5,6 °C 1,7 °C 93 % 995,1 hPa 0,0 l/m² 0 min 0 min 83 W/m² 16,1 km/h (3 Bft) 97,87 %
10.02.2026 11:50 5,6 °C 5,6 °C 1,7 °C 93 % 995,0 hPa 0,0 l/m² 0 min 0 min 84 W/m² 25,7 km/h (4 Bft) 95,74 %
10.02.2026 11:52 5,6 °C 5,6 °C 1,7 °C 93 % 995,0 hPa 0,0 l/m² 0 min 0 min 106 W/m² 22,5 km/h (4 Bft) 95,74 %
10.02.2026 11:54 5,6 °C 5,6 °C 1,7 °C 93 % 994,9 hPa 0,0 l/m² 0 min 0 min 131 W/m² 19,3 km/h (3 Bft) 97,87 %
10.02.2026 11:56 5,7 °C 5,6 °C 1,7 °C 93 % 995,0 hPa 0,0 l/m² 0 min 0 min 141 W/m² 16,1 km/h (3 Bft) 97,87 %
10.02.2026 11:58 5,7 °C 6,1 °C 1,7 °C 93 % 994,9 hPa 0,0 l/m² 0 min 0 min 146 W/m² 16,1 km/h (3 Bft) 97,83 %
10.02.2026 12:00 5,7 °C 6,1 °C 2,2 °C 93 % 994,9 hPa 0,0 l/m² 0 min 0 min 156 W/m² 12,9 km/h (3 Bft) 97,87 %
10.02.2026 12:02 5,8 °C 6,1 °C 2,2 °C 93 % 994,8 hPa 0,0 l/m² 0 min 0 min 193 W/m² 22,5 km/h (4 Bft) 93,62 %
10.02.2026 12:04 5,8 °C 6,7 °C 2,2 °C 93 % 994,8 hPa 0,0 l/m² 0 min 0 min 184 W/m² 22,5 km/h (4 Bft) 97,87 %
10.02.2026 12:07 5,9 °C 6,7 °C 2,2 °C 93 % 994,7 hPa 0,0 l/m² 0 min 0 min 154 W/m² 22,5 km/h (4 Bft) 97,26 %
10.02.2026 12:08 5,9 °C 6,7 °C 2,2 °C 93 % 994,7 hPa 0,0 l/m² 0 min 0 min 151 W/m² 16,1 km/h (3 Bft) 100,00 %
10.02.2026 12:12 6,0 °C 6,1 °C 2,2 °C 93 % 994,7 hPa 0,0 l/m² 0 min 0 min 140 W/m² 16,1 km/h (3 Bft) 96,36 %
10.02.2026 12:14 6,1 °C 6,1 °C 2,2 °C 93 % 994,6 hPa 0,0 l/m² 0 min 0 min 125 W/m² 22,5 km/h (4 Bft) 95,74 %
10.02.2026 12:16 6,1 °C 6,1 °C 2,2 °C 93 % 994,6 hPa 0,0 l/m² 0 min 0 min 112 W/m² 16,1 km/h (3 Bft) 100,00 %
10.02.2026 12:18 6,1 °C 6,1 °C 2,2 °C 93 % 994,6 hPa 0,0 l/m² 0 min 0 min 110 W/m² 25,7 km/h (4 Bft) 95,74 %
10.02.2026 12:20 6,2 °C 6,1 °C 2,2 °C 93 % 994,6 hPa 0,0 l/m² 0 min 0 min 114 W/m² 19,3 km/h (3 Bft) 97,87 %
10.02.2026 12:22 6,2 °C 6,1 °C 2,2 °C 92 % 994,5 hPa 0,0 l/m² 0 min 0 min 119 W/m² 16,1 km/h (3 Bft) 95,74 %
10.02.2026 12:24 6,2 °C 6,1 °C 2,2 °C 92 % 994,5 hPa 0,0 l/m² 0 min 0 min 124 W/m² 25,7 km/h (4 Bft) 97,87 %
10.02.2026 12:26 6,2 °C 6,7 °C 2,2 °C 92 % 994,4 hPa 0,0 l/m² 0 min 0 min 143 W/m² 22,5 km/h (4 Bft) 100,00 %
10.02.2026 12:28 6,3 °C 6,7 °C 2,8 °C 92 % 994,4 hPa 0,0 l/m² 0 min 0 min 155 W/m² 19,3 km/h (3 Bft) 100,00 %
10.02.2026 12:30 6,3 °C 6,7 °C 2,8 °C 92 % 994,3 hPa 0,0 l/m² 0 min 0 min 153 W/m² 22,5 km/h (4 Bft) 100,00 %
10.02.2026 12:32 6,4 °C 6,7 °C 2,8 °C 93 % 994,3 hPa 0,0 l/m² 0 min 0 min 160 W/m² 22,5 km/h (4 Bft) 100,00 %
10.02.2026 12:34 6,4 °C 6,7 °C 2,8 °C 93 % 994,3 hPa 0,0 l/m² 0 min 0 min 150 W/m² 25,7 km/h (4 Bft) 100,00 %
10.02.2026 12:36 6,4 °C 6,7 °C 2,8 °C 93 % 994,3 hPa 0,0 l/m² 0 min 0 min 135 W/m² 22,5 km/h (4 Bft) 100,00 %
10.02.2026 12:38 6,5 °C 6,7 °C 2,8 °C 92 % 994,2 hPa 0,0 l/m² 0 min 0 min 148 W/m² 35,4 km/h (5 Bft) 100,00 %
10.02.2026 12:40 6,6 °C 7,2 °C 2,8 °C 92 % 994,2 hPa 0,0 l/m² 0 min 0 min 181 W/m² 25,7 km/h (4 Bft) 100,00 %
10.02.2026 12:42 6,6 °C 7,2 °C 2,8 °C 92 % 994,2 hPa 0,0 l/m² 0 min 0 min 182 W/m² 22,5 km/h (4 Bft) 100,00 %
10.02.2026 12:44 6,6 °C 7,2 °C 2,8 °C 92 % 994,1 hPa 0,0 l/m² 0 min 0 min 169 W/m² 25,7 km/h (4 Bft) 100,00 %
10.02.2026 12:46 6,7 °C 7,2 °C 2,8 °C 92 % 994,0 hPa 0,0 l/m² 0 min 0 min 158 W/m² 19,3 km/h (3 Bft) 100,00 %
10.02.2026 12:48 6,7 °C 7,2 °C 3,3 °C 92 % 994,0 hPa 0,0 l/m² 0 min 0 min 190 W/m² 16,1 km/h (3 Bft) 100,00 %
10.02.2026 12:50 6,8 °C 7,2 °C 3,3 °C 92 % 994,0 hPa 0,0 l/m² 0 min 0 min 206 W/m² 22,5 km/h (4 Bft) 95,74 %
10.02.2026 12:52 6,8 °C 7,8 °C 3,3 °C 92 % 993,9 hPa 0,0 l/m² 0 min 0 min 192 W/m² 16,1 km/h (3 Bft) 100,00 %
10.02.2026 12:54 6,9 °C 7,8 °C 3,3 °C 92 % 993,9 hPa 0,0 l/m² 0 min 0 min 191 W/m² 16,1 km/h (3 Bft) 100,00 %
10.02.2026 12:56 6,9 °C 7,8 °C 3,3 °C 92 % 993,9 hPa 0,0 l/m² 0 min 0 min 177 W/m² 19,3 km/h (3 Bft) 100,00 %
10.02.2026 12:58 7,1 °C 8,3 °C 3,3 °C 92 % 993,8 hPa 0,0 l/m² 0 min 0 min 184 W/m² 12,9 km/h (3 Bft) 97,37 %
10.02.2026 13:00 7,1 °C 8,3 °C 3,3 °C 92 % 993,7 hPa 0,0 l/m² 0 min 0 min 192 W/m² 22,5 km/h (4 Bft) 97,92 %
10.02.2026 13:02 7,2 °C 8,3 °C 3,9 °C 92 % 993,6 hPa 0,0 l/m² 2 min 0 min 212 W/m² 19,3 km/h (3 Bft) 97,87 %
10.02.2026 13:04 7,3 °C 8,9 °C 3,9 °C 92 % 993,6 hPa 0,0 l/m² 2 min 0 min 224 W/m² 19,3 km/h (3 Bft) 97,87 %
10.02.2026 13:06 7,3 °C 8,3 °C 3,9 °C 91 % 993,6 hPa 0,0 l/m² 0 min 0 min 191 W/m² 22,5 km/h (4 Bft) 100,00 %
10.02.2026 13:08 7,4 °C 8,3 °C 3,9 °C 91 % 993,6 hPa 0,0 l/m² 0 min 0 min 187 W/m² 22,5 km/h (4 Bft) 100,00 %
10.02.2026 13:10 7,4 °C 8,3 °C 3,9 °C 91 % 993,5 hPa 0,0 l/m² 2 min 0 min 208 W/m² 16,1 km/h (3 Bft) 100,00 %
10.02.2026 13:12 7,5 °C 8,3 °C 3,9 °C 91 % 993,4 hPa 0,0 l/m² 0 min 0 min 182 W/m² 16,1 km/h (3 Bft) 97,87 %
10.02.2026 13:14 7,6 °C 8,3 °C 3,9 °C 91 % 993,4 hPa 0,0 l/m² 0 min 0 min 171 W/m² 22,5 km/h (4 Bft) 97,87 %
10.02.2026 13:16 7,6 °C 8,3 °C 3,9 °C 90 % 993,4 hPa 0,0 l/m² 0 min 0 min 172 W/m² 22,5 km/h (4 Bft) 97,92 %
10.02.2026 13:18 7,6 °C 8,3 °C 3,9 °C 90 % 993,4 hPa 0,0 l/m² 0 min 0 min 181 W/m² 19,3 km/h (3 Bft) 97,87 %
10.02.2026 13:20 7,7 °C 8,3 °C 3,9 °C 90 % 993,3 hPa 0,0 l/m² 0 min 0 min 191 W/m² 16,1 km/h (3 Bft) 97,87 %
10.02.2026 13:22 7,7 °C 8,3 °C 3,9 °C 90 % 993,3 hPa 0,0 l/m² 0 min 0 min 188 W/m² 16,1 km/h (3 Bft) 95,74 %
10.02.2026 13:24 7,8 °C 8,3 °C 3,9 °C 90 % 993,3 hPa 0,0 l/m² 0 min 0 min 167 W/m² 22,5 km/h (4 Bft) 97,83 %
10.02.2026 13:26 7,8 °C 8,3 °C 3,9 °C 90 % 993,2 hPa 0,0 l/m² 0 min 0 min 160 W/m² 22,5 km/h (4 Bft) 97,87 %
10.02.2026 13:28 7,9 °C 8,3 °C 3,9 °C 90 % 993,3 hPa 0,0 l/m² 0 min 0 min 150 W/m² 19,3 km/h (3 Bft) 97,87 %
10.02.2026 13:30 7,9 °C 8,3 °C 3,9 °C 90 % 993,2 hPa 0,0 l/m² 0 min 0 min 166 W/m² 19,3 km/h (3 Bft) 93,62 %
10.02.2026 13:32 7,9 °C 8,3 °C 3,9 °C 90 % 993,1 hPa 0,0 l/m² 0 min 0 min 155 W/m² 19,3 km/h (3 Bft) 95,74 %
10.02.2026 13:34 8,0 °C 8,3 °C 4,4 °C 90 % 993,1 hPa 0,0 l/m² 0 min 0 min 151 W/m² 16,1 km/h (3 Bft) 95,74 %
10.02.2026 13:36 8,1 °C 8,3 °C 4,4 °C 89 % 993,1 hPa 0,0 l/m² 0 min 0 min 156 W/m² 16,1 km/h (3 Bft) 93,62 %
10.02.2026 13:38 8,1 °C 8,3 °C 4,4 °C 89 % 993,2 hPa 0,0 l/m² 0 min 0 min 168 W/m² 19,3 km/h (3 Bft) 95,74 %
10.02.2026 13:40 8,2 °C 8,3 °C 4,4 °C 89 % 993,1 hPa 0,0 l/m² 0 min 0 min 155 W/m² 19,3 km/h (3 Bft) 95,74 %
10.02.2026 13:42 8,2 °C 8,3 °C 4,4 °C 89 % 993,1 hPa 0,0 l/m² 0 min 0 min 142 W/m² 19,3 km/h (3 Bft) 95,74 %
10.02.2026 13:44 8,3 °C 8,3 °C 4,4 °C 89 % 993,0 hPa 0,0 l/m² 0 min 0 min 119 W/m² 19,3 km/h (3 Bft) 95,65 %
10.02.2026 13:46 8,3 °C 8,3 °C 4,4 °C 89 % 993,0 hPa 0,0 l/m² 0 min 0 min 114 W/m² 22,5 km/h (4 Bft) 93,62 %
10.02.2026 13:48 8,3 °C 8,3 °C 4,4 °C 89 % 993,0 hPa 0,0 l/m² 0 min 0 min 103 W/m² 25,7 km/h (4 Bft) 95,74 %
10.02.2026 13:50 8,3 °C 8,3 °C 4,4 °C 89 % 993,0 hPa 0,0 l/m² 0 min 0 min 104 W/m² 19,3 km/h (3 Bft) 97,87 %
10.02.2026 13:52 8,4 °C 8,3 °C 4,4 °C 88 % 993,0 hPa 0,0 l/m² 0 min 0 min 102 W/m² 16,1 km/h (3 Bft) 97,87 %
10.02.2026 13:54 8,4 °C 8,3 °C 4,4 °C 88 % 992,9 hPa 0,0 l/m² 0 min 0 min 101 W/m² 16,1 km/h (3 Bft) 97,87 %
10.02.2026 13:56 8,4 °C 8,3 °C 4,4 °C 89 % 992,9 hPa 0,0 l/m² 0 min 0 min 87 W/m² 16,1 km/h (3 Bft) 95,74 %
10.02.2026 13:58 8,5 °C 8,3 °C 4,4 °C 89 % 992,9 hPa 0,0 l/m² 0 min 0 min 82 W/m² 19,3 km/h (3 Bft) 97,87 %
10.02.2026 14:00 8,6 °C 8,3 °C 4,4 °C 89 % 992,9 hPa 0,0 l/m² 0 min 0 min 89 W/m² 19,3 km/h (3 Bft) 97,87 %
10.02.2026 14:02 8,6 °C 8,3 °C 4,4 °C 89 % 992,8 hPa 0,0 l/m² 0 min 0 min 102 W/m² 9,7 km/h (2 Bft) 95,74 %
10.02.2026 14:04 8,6 °C 8,9 °C 4,4 °C 89 % 992,8 hPa 0,0 l/m² 0 min 0 min 128 W/m² 29,0 km/h (5 Bft) 95,83 %
10.02.2026 14:06 8,7 °C 8,9 °C 4,4 °C 89 % 992,7 hPa 0,0 l/m² 0 min 0 min 161 W/m² 35,4 km/h (5 Bft) 97,87 %
10.02.2026 14:08 8,7 °C 8,9 °C 4,4 °C 88 % 992,7 hPa 0,0 l/m² 0 min 0 min 138 W/m² 25,7 km/h (4 Bft) 97,87 %
10.02.2026 14:10 8,7 °C 8,9 °C 4,4 °C 88 % 992,7 hPa 0,0 l/m² 0 min 0 min 139 W/m² 19,3 km/h (3 Bft) 97,87 %
10.02.2026 14:12 8,7 °C 8,9 °C 4,4 °C 88 % 992,7 hPa 0,0 l/m² 0 min 0 min 152 W/m² 9,7 km/h (2 Bft) 95,74 %
10.02.2026 14:14 8,8 °C 9,4 °C 5,0 °C 88 % 992,6 hPa 0,0 l/m² 0 min 0 min 157 W/m² 16,1 km/h (3 Bft) 97,87 %
10.02.2026 14:16 8,8 °C 9,4 °C 5,0 °C 88 % 992,5 hPa 0,0 l/m² 0 min 0 min 159 W/m² 16,1 km/h (3 Bft) 97,87 %
10.02.2026 14:18 8,9 °C 9,4 °C 5,0 °C 88 % 992,5 hPa 0,0 l/m² 0 min 0 min 161 W/m² 12,9 km/h (3 Bft) 97,14 %
10.02.2026 14:20 8,9 °C 9,4 °C 5,0 °C 88 % 992,5 hPa 0,0 l/m² 0 min 0 min 161 W/m² 19,3 km/h (3 Bft) 100,00 %
10.02.2026 14:22 9,0 °C 9,4 °C 5,0 °C 88 % 992,4 hPa 0,0 l/m² 0 min 0 min 166 W/m² 19,3 km/h (3 Bft) 100,00 %
10.02.2026 14:24 9,0 °C 9,4 °C 5,0 °C 88 % 992,4 hPa 0,0 l/m² 0 min 0 min 161 W/m² 16,1 km/h (3 Bft) 100,00 %
10.02.2026 14:26 9,1 °C 10,0 °C 5,0 °C 88 % 992,3 hPa 0,0 l/m² 0 min 0 min 175 W/m² 16,1 km/h (3 Bft) 97,87 %
10.02.2026 14:28 9,1 °C 9,4 °C 5,0 °C 88 % 992,3 hPa 0,0 l/m² 0 min 0 min 157 W/m² 22,5 km/h (4 Bft) 97,87 %
10.02.2026 14:30 9,2 °C 9,4 °C 5,0 °C 88 % 992,3 hPa 0,0 l/m² 0 min 0 min 124 W/m² 12,9 km/h (3 Bft) 95,74 %
10.02.2026 14:32 9,2 °C 9,4 °C 5,0 °C 87 % 992,3 hPa 0,0 l/m² 0 min 0 min 113 W/m² 19,3 km/h (3 Bft) 100,00 %
10.02.2026 14:34 9,2 °C 9,4 °C 5,0 °C 87 % 992,3 hPa 0,0 l/m² 0 min 0 min 124 W/m² 19,3 km/h (3 Bft) 97,87 %
10.02.2026 14:36 9,3 °C 9,4 °C 5,0 °C 87 % 992,3 hPa 0,0 l/m² 0 min 0 min 120 W/m² 12,9 km/h (3 Bft) 97,83 %
10.02.2026 14:38 9,3 °C 9,4 °C 5,0 °C 87 % 992,2 hPa 0,0 l/m² 0 min 0 min 104 W/m² 6,4 km/h (2 Bft) 95,74 %
10.02.2026 14:40 9,3 °C 9,4 °C 5,0 °C 87 % 992,2 hPa 0,0 l/m² 0 min 0 min 97 W/m² 22,5 km/h (4 Bft) 97,87 %
10.02.2026 14:42 9,4 °C 9,4 °C 5,0 °C 87 % 992,2 hPa 0,0 l/m² 0 min 0 min 87 W/m² 16,1 km/h (3 Bft) 97,87 %
10.02.2026 14:44 9,4 °C 9,4 °C 5,0 °C 87 % 992,1 hPa 0,0 l/m² 0 min 0 min 79 W/m² 19,3 km/h (3 Bft) 97,87 %
10.02.2026 14:46 9,4 °C 9,4 °C 5,0 °C 87 % 992,2 hPa 0,0 l/m² 0 min 0 min 81 W/m² 16,1 km/h (3 Bft) 97,87 %
10.02.2026 14:48 9,4 °C 8,9 °C 5,0 °C 87 % 992,1 hPa 0,0 l/m² 0 min 0 min 86 W/m² 19,3 km/h (3 Bft) 97,87 %
10.02.2026 14:50 9,4 °C 8,9 °C 5,0 °C 87 % 992,0 hPa 0,0 l/m² 0 min 0 min 84 W/m² 16,1 km/h (3 Bft) 95,74 %
10.02.2026 14:52 9,5 °C 8,9 °C 5,0 °C 87 % 992,0 hPa 0,0 l/m² 0 min 0 min 85 W/m² 19,3 km/h (3 Bft) 97,87 %
10.02.2026 14:54 9,5 °C 8,9 °C 5,0 °C 87 % 992,0 hPa 0,0 l/m² 0 min 0 min 80 W/m² 19,3 km/h (3 Bft) 95,74 %
10.02.2026 14:56 9,5 °C 8,9 °C 5,0 °C 87 % 992,1 hPa 0,0 l/m² 0 min 0 min 66 W/m² 16,1 km/h (3 Bft) 97,83 %
10.02.2026 14:58 9,5 °C 8,9 °C 5,0 °C 87 % 992,0 hPa 0,0 l/m² 0 min 0 min 57 W/m² 12,9 km/h (3 Bft) 97,87 %
10.02.2026 15:00 9,5 °C 8,9 °C 5,0 °C 87 % 992,0 hPa 0,0 l/m² 0 min 0 min 51 W/m² 16,1 km/h (3 Bft) 97,87 %
10.02.2026 15:02 9,6 °C 8,9 °C 5,0 °C 86 % 992,0 hPa 0,0 l/m² 0 min 0 min 43 W/m² 16,1 km/h (3 Bft) 95,74 %
10.02.2026 15:04 9,5 °C 8,9 °C 5,0 °C 86 % 992,0 hPa 0,0 l/m² 0 min 0 min 41 W/m² 16,1 km/h (3 Bft) 97,92 %
10.02.2026 15:06 9,6 °C 8,9 °C 5,0 °C 86 % 992,0 hPa 0,0 l/m² 0 min 0 min 33 W/m² 19,3 km/h (3 Bft) 98,31 %
10.02.2026 15:08 9,5 °C 8,9 °C 5,0 °C 86 % 991,9 hPa 0,0 l/m² 0 min 0 min 31 W/m² 16,1 km/h (3 Bft) 94,29 %
10.02.2026 15:10 9,5 °C 8,9 °C 5,0 °C 86 % 991,9 hPa 0,0 l/m² 0 min 0 min 40 W/m² 16,1 km/h (3 Bft) 97,87 %
10.02.2026 15:12 9,5 °C 8,9 °C 5,0 °C 86 % 991,8 hPa 0,0 l/m² 0 min 0 min 56 W/m² 19,3 km/h (3 Bft) 97,87 %
10.02.2026 15:14 9,5 °C 8,9 °C 5,0 °C 86 % 991,7 hPa 0,0 l/m² 0 min 0 min 62 W/m² 12,9 km/h (3 Bft) 97,87 %
10.02.2026 15:16 9,5 °C 8,9 °C 5,0 °C 86 % 991,7 hPa 0,0 l/m² 0 min 0 min 68 W/m² 16,1 km/h (3 Bft) 95,74 %
10.02.2026 15:18 9,5 °C 8,9 °C 5,0 °C 86 % 991,7 hPa 0,0 l/m² 0 min 0 min 64 W/m² 16,1 km/h (3 Bft) 95,74 %
10.02.2026 15:20 9,5 °C 8,9 °C 5,0 °C 86 % 991,6 hPa 0,0 l/m² 0 min 0 min 60 W/m² 12,9 km/h (3 Bft) 93,48 %
10.02.2026 15:22 9,5 °C 8,9 °C 5,0 °C 86 % 991,6 hPa 0,0 l/m² 0 min 0 min 64 W/m² 25,7 km/h (4 Bft) 93,62 %
10.02.2026 15:24 9,6 °C 9,4 °C 5,0 °C 86 % 991,6 hPa 0,0 l/m² 0 min 0 min 82 W/m² 19,3 km/h (3 Bft) 95,74 %
10.02.2026 15:26 9,6 °C 9,4 °C 5,0 °C 86 % 991,6 hPa 0,0 l/m² 0 min 0 min 86 W/m² 19,3 km/h (3 Bft) 95,74 %
10.02.2026 15:28 9,6 °C 9,4 °C 5,0 °C 86 % 991,6 hPa 0,0 l/m² 0 min 0 min 61 W/m² 16,1 km/h (3 Bft) 97,87 %
10.02.2026 15:30 9,6 °C 8,9 °C 5,0 °C 86 % 991,5 hPa 0,0 l/m² 0 min 0 min 44 W/m² 12,9 km/h (3 Bft) 97,87 %
10.02.2026 15:32 9,6 °C 8,9 °C 5,0 °C 86 % 991,6 hPa 0,0 l/m² 0 min 0 min 30 W/m² 12,9 km/h (3 Bft) 97,87 %
10.02.2026 15:34 9,6 °C 8,9 °C 5,0 °C 86 % 991,6 hPa 0,0 l/m² 0 min 0 min 26 W/m² 16,1 km/h (3 Bft) 95,74 %
10.02.2026 15:36 9,6 °C 8,9 °C 5,0 °C 86 % 991,5 hPa 0,0 l/m² 0 min 0 min 26 W/m² 9,7 km/h (2 Bft) 95,74 %
10.02.2026 15:38 9,6 °C 8,9 °C 5,0 °C 86 % 991,5 hPa 0,0 l/m² 0 min 0 min 26 W/m² 22,5 km/h (4 Bft) 97,87 %
10.02.2026 15:40 9,6 °C 8,9 °C 5,0 °C 86 % 991,5 hPa 0,0 l/m² 0 min 0 min 26 W/m² 12,9 km/h (3 Bft) 95,74 %
10.02.2026 15:42 9,6 °C 8,9 °C 5,0 °C 86 % 991,5 hPa 0,0 l/m² 0 min 0 min 25 W/m² 12,9 km/h (3 Bft) 95,74 %
10.02.2026 15:44 9,6 °C 8,9 °C 5,0 °C 86 % 991,5 hPa 0,0 l/m² 0 min 0 min 21 W/m² 12,9 km/h (3 Bft) 97,83 %
10.02.2026 15:46 9,6 °C 8,9 °C 5,0 °C 86 % 991,4 hPa 0,0 l/m² 0 min 0 min 21 W/m² 12,9 km/h (3 Bft) 97,87 %
10.02.2026 15:48 9,5 °C 8,9 °C 5,0 °C 86 % 991,4 hPa 0,0 l/m² 0 min 0 min 23 W/m² 16,1 km/h (3 Bft) 93,62 %
10.02.2026 15:50 9,5 °C 8,9 °C 5,0 °C 86 % 991,4 hPa 0,0 l/m² 0 min 0 min 26 W/m² 12,9 km/h (3 Bft) 97,87 %
10.02.2026 15:52 9,5 °C 8,9 °C 4,4 °C 86 % 991,4 hPa 0,0 l/m² 0 min 0 min 21 W/m² 12,9 km/h (3 Bft) 97,87 %
10.02.2026 15:54 9,5 °C 8,9 °C 4,4 °C 86 % 991,4 hPa 0,0 l/m² 0 min 0 min 17 W/m² 12,9 km/h (3 Bft) 100,00 %
10.02.2026 15:56 9,5 °C 8,3 °C 4,4 °C 86 % 991,4 hPa 0,0 l/m² 0 min 0 min 21 W/m² 19,3 km/h (3 Bft) 100,00 %
10.02.2026 15:58 9,4 °C 8,3 °C 4,4 °C 86 % 991,4 hPa 0,0 l/m² 0 min 0 min 26 W/m² 12,9 km/h (3 Bft) 100,00 %
10.02.2026 16:00 9,4 °C 8,3 °C 4,4 °C 86 % 991,4 hPa 0,0 l/m² 0 min 0 min 21 W/m² 16,1 km/h (3 Bft) 100,00 %
10.02.2026 16:02 9,4 °C 8,3 °C 4,4 °C 86 % 991,4 hPa 0,0 l/m² 0 min 0 min 17 W/m² 12,9 km/h (3 Bft) 100,00 %
10.02.2026 16:04 9,4 °C 8,3 °C 4,4 °C 86 % 991,4 hPa 0,0 l/m² 0 min 0 min 17 W/m² 16,1 km/h (3 Bft) 100,00 %
10.02.2026 16:06 9,4 °C 8,3 °C 4,4 °C 87 % 991,3 hPa 0,0 l/m² 0 min 0 min 17 W/m² 12,9 km/h (3 Bft) 100,00 %
10.02.2026 16:08 9,3 °C 8,3 °C 4,4 °C 87 % 991,3 hPa 0,0 l/m² 0 min 0 min 16 W/m² 6,4 km/h (2 Bft) 100,00 %
10.02.2026 16:10 9,4 °C 8,3 °C 4,4 °C 87 % 991,3 hPa 0,0 l/m² 0 min 0 min 16 W/m² 12,9 km/h (3 Bft) 97,87 %
10.02.2026 16:12 9,3 °C 8,3 °C 4,4 °C 87 % 991,3 hPa 0,0 l/m² 0 min 0 min 17 W/m² 6,4 km/h (2 Bft) 95,74 %
10.02.2026 16:14 9,3 °C 8,3 °C 4,4 °C 87 % 991,3 hPa 0,0 l/m² 0 min 0 min 12 W/m² 12,9 km/h (3 Bft) 97,87 %
10.02.2026 16:16 9,3 °C 8,3 °C 4,4 °C 87 % 991,2 hPa 0,0 l/m² 0 min 0 min 11 W/m² 6,4 km/h (2 Bft) 97,87 %
10.02.2026 16:18 9,3 °C 8,3 °C 4,4 °C 87 % 991,3 hPa 0,0 l/m² 0 min 0 min 9 W/m² 6,4 km/h (2 Bft) 97,87 %
10.02.2026 16:20 9,3 °C 8,3 °C 4,4 °C 87 % 991,2 hPa 0,0 l/m² 0 min 0 min 8 W/m² 6,4 km/h (2 Bft) 97,87 %
10.02.2026 16:22 9,3 °C 8,3 °C 4,4 °C 87 % 991,1 hPa 0,0 l/m² 0 min 0 min 7 W/m² 16,1 km/h (3 Bft) 97,87 %
10.02.2026 16:24 9,3 °C 8,3 °C 4,4 °C 87 % 991,2 hPa 0,0 l/m² 0 min 0 min 9 W/m² 16,1 km/h (3 Bft) 95,74 %
10.02.2026 16:26 9,3 °C 8,3 °C 4,4 °C 87 % 991,1 hPa 0,0 l/m² 0 min 0 min 9 W/m² 16,1 km/h (3 Bft) 97,83 %
10.02.2026 16:28 9,3 °C 8,3 °C 4,4 °C 87 % 991,1 hPa 0,0 l/m² 0 min 0 min 7 W/m² 9,7 km/h (2 Bft) 97,87 %
10.02.2026 16:30 9,3 °C 8,3 °C 4,4 °C 87 % 991,1 hPa 0,0 l/m² 0 min 0 min 5 W/m² 6,4 km/h (2 Bft) 97,87 %
10.02.2026 16:32 9,3 °C 8,3 °C 4,4 °C 87 % 991,1 hPa 0,0 l/m² 0 min 0 min 5 W/m² 6,4 km/h (2 Bft) 97,87 %
10.02.2026 16:34 9,3 °C 8,3 °C 4,4 °C 87 % 991,1 hPa 0,0 l/m² 0 min 0 min 6 W/m² 3,2 km/h (1 Bft) 97,87 %
10.02.2026 16:36 9,3 °C 8,3 °C 4,4 °C 87 % 991,1 hPa 0,0 l/m² 0 min 0 min 7 W/m² 0,0 km/h (0 Bft) 93,62 %
10.02.2026 16:38 9,3 °C 8,3 °C 4,4 °C 88 % 991,0 hPa 0,0 l/m² 0 min 0 min 8 W/m² 3,2 km/h (1 Bft) 97,87 %
10.02.2026 16:40 9,3 °C 8,3 °C 4,4 °C 88 % 991,0 hPa 0,0 l/m² 0 min 0 min 11 W/m² 3,2 km/h (1 Bft) 95,74 %
10.02.2026 16:42 9,2 °C 8,3 °C 4,4 °C 88 % 991,0 hPa 0,0 l/m² 0 min 0 min 12 W/m² 0,0 km/h (0 Bft) 97,87 %
10.02.2026 16:44 9,3 °C 8,3 °C 4,4 °C 88 % 991,0 hPa 0,0 l/m² 0 min 0 min 12 W/m² 3,2 km/h (1 Bft) 97,87 %
10.02.2026 16:46 9,2 °C 8,3 °C 4,4 °C 88 % 991,0 hPa 0,0 l/m² 0 min 0 min 16 W/m² 6,4 km/h (2 Bft) 97,87 %
10.02.2026 16:48 9,2 °C 8,3 °C 4,4 °C 88 % 991,0 hPa 0,0 l/m² 0 min 0 min 18 W/m² 6,4 km/h (2 Bft) 95,74 %
10.02.2026 16:50 9,3 °C 8,3 °C 4,4 °C 88 % 991,0 hPa 0,0 l/m² 0 min 0 min 21 W/m² 3,2 km/h (1 Bft) 95,65 %
10.02.2026 16:52 9,3 °C 8,3 °C 4,4 °C 88 % 991,0 hPa 0,0 l/m² 0 min 0 min 20 W/m² 3,2 km/h (1 Bft) 97,87 %
10.02.2026 16:54 9,3 °C 8,3 °C 4,4 °C 88 % 991,0 hPa 0,0 l/m² 0 min 0 min 18 W/m² 6,4 km/h (2 Bft) 95,74 %
10.02.2026 16:56 9,3 °C 8,3 °C 4,4 °C 88 % 990,9 hPa 0,0 l/m² 0 min 0 min 18 W/m² 12,9 km/h (3 Bft) 95,74 %
10.02.2026 16:58 9,3 °C 8,3 °C 4,4 °C 89 % 990,9 hPa 0,0 l/m² 0 min 0 min 17 W/m² 6,4 km/h (2 Bft) 97,87 %
10.02.2026 17:00 9,3 °C 8,3 °C 4,4 °C 88 % 991,0 hPa 0,0 l/m² 0 min 0 min 14 W/m² 6,4 km/h (2 Bft) 100,00 %
10.02.2026 17:02 9,3 °C 8,3 °C 4,4 °C 89 % 990,9 hPa 0,0 l/m² 0 min 0 min 11 W/m² 3,2 km/h (1 Bft) 95,74 %
10.02.2026 17:04 9,3 °C 8,3 °C 4,4 °C 89 % 990,9 hPa 0,0 l/m² 0 min 0 min 12 W/m² 6,4 km/h (2 Bft) 97,92 %
10.02.2026 17:06 9,3 °C 8,3 °C 4,4 °C 89 % 990,8 hPa 0,0 l/m² 0 min 0 min 12 W/m² 3,2 km/h (1 Bft) 100,00 %
10.02.2026 17:08 9,3 °C 8,3 °C 4,4 °C 89 % 990,8 hPa 0,0 l/m² 0 min 0 min 11 W/m² 6,4 km/h (2 Bft) 100,00 %
10.02.2026 17:10 9,3 °C 8,3 °C 4,4 °C 89 % 990,8 hPa 0,0 l/m² 0 min 0 min 11 W/m² 9,7 km/h (2 Bft) 100,00 %
10.02.2026 17:12 9,3 °C 8,3 °C 4,4 °C 89 % 990,8 hPa 0,0 l/m² 0 min 0 min 8 W/m² 6,4 km/h (2 Bft) 95,74 %
10.02.2026 17:14 9,3 °C 8,3 °C 4,4 °C 89 % 990,8 hPa 0,0 l/m² 0 min 0 min 6 W/m² 3,2 km/h (1 Bft) 100,00 %
10.02.2026 17:16 9,3 °C 8,3 °C 4,4 °C 89 % 990,7 hPa 0,0 l/m² 0 min 0 min 6 W/m² 3,2 km/h (1 Bft) 97,87 %
10.02.2026 17:18 9,3 °C 8,3 °C 4,4 °C 89 % 990,7 hPa 0,0 l/m² 0 min 0 min 6 W/m² 6,4 km/h (2 Bft) 97,87 %
10.02.2026 17:20 9,3 °C 8,3 °C 4,4 °C 89 % 990,7 hPa 0,0 l/m² 0 min 0 min 5 W/m² 3,2 km/h (1 Bft) 93,62 %
10.02.2026 17:22 9,3 °C 8,3 °C 4,4 °C 89 % 990,7 hPa 0,0 l/m² 0 min 0 min 1 W/m² 3,2 km/h (1 Bft) 95,74 %
10.02.2026 17:24 9,3 °C 8,3 °C 4,4 °C 89 % 990,7 hPa 0,0 l/m² 0 min 0 min 0 W/m² 6,4 km/h (2 Bft) 97,87 %
10.02.2026 17:26 9,3 °C 8,3 °C 4,4 °C 89 % 990,7 hPa 0,0 l/m² 0 min 0 min 0 W/m² 3,2 km/h (1 Bft) 97,87 %
10.02.2026 17:28 9,3 °C 8,3 °C 4,4 °C 89 % 990,7 hPa 0,0 l/m² 0 min 0 min 0 W/m² 6,4 km/h (2 Bft) 97,87 %
10.02.2026 17:30 9,3 °C 8,3 °C 4,4 °C 89 % 990,6 hPa 0,0 l/m² 0 min 0 min 0 W/m² 6,4 km/h (2 Bft) 95,74 %
10.02.2026 17:32 9,3 °C 8,3 °C 4,4 °C 89 % 990,6 hPa 0,0 l/m² 0 min 0 min 0 W/m² 12,9 km/h (3 Bft) 95,74 %
10.02.2026 17:34 9,3 °C 8,3 °C 4,4 °C 90 % 990,5 hPa 0,0 l/m² 0 min 0 min 0 W/m² 6,4 km/h (2 Bft) 93,62 %
10.02.2026 17:36 9,2 °C 8,3 °C 4,4 °C 90 % 990,5 hPa 0,0 l/m² 0 min 0 min 0 W/m² 12,9 km/h (3 Bft) 95,74 %
10.02.2026 17:38 9,2 °C 8,3 °C 4,4 °C 90 % 990,5 hPa 0,0 l/m² 0 min 0 min 0 W/m² 16,1 km/h (3 Bft) 94,29 %
10.02.2026 17:40 9,2 °C 8,3 °C 4,4 °C 90 % 990,5 hPa 0,0 l/m² 0 min 0 min 0 W/m² 6,4 km/h (2 Bft) 93,62 %
10.02.2026 17:42 9,2 °C 8,3 °C 4,4 °C 90 % 990,5 hPa 0,0 l/m² 0 min 0 min 0 W/m² 12,9 km/h (3 Bft) 95,74 %
10.02.2026 17:44 9,2 °C 8,3 °C 4,4 °C 90 % 990,5 hPa 0,0 l/m² 0 min 0 min 0 W/m² 12,9 km/h (3 Bft) 95,65 %
10.02.2026 17:46 9,1 °C 8,3 °C 4,4 °C 90 % 990,5 hPa 0,0 l/m² 0 min 0 min 0 W/m² 6,4 km/h (2 Bft) 95,74 %
10.02.2026 17:48 9,1 °C 8,3 °C 3,9 °C 90 % 990,5 hPa 0,0 l/m² 0 min 0 min 0 W/m² 6,4 km/h (2 Bft) 95,74 %
10.02.2026 17:50 9,1 °C 8,3 °C 3,9 °C 90 % 990,4 hPa 0,0 l/m² 0 min 2 min 0 W/m² 12,9 km/h (3 Bft) 93,62 %
10.02.2026 17:52 9,1 °C 8,3 °C 3,9 °C 90 % 990,5 hPa 0,0 l/m² 0 min 0 min 0 W/m² 12,9 km/h (3 Bft) 97,87 %
10.02.2026 17:54 9,1 °C 8,3 °C 3,9 °C 90 % 990,4 hPa 0,0 l/m² 0 min 0 min 0 W/m² 12,9 km/h (3 Bft) 97,87 %
10.02.2026 17:56 9,1 °C 8,3 °C 3,9 °C 90 % 990,4 hPa 0,0 l/m² 0 min 0 min 0 W/m² 16,1 km/h (3 Bft) 95,74 %
10.02.2026 17:58 9,1 °C 8,3 °C 3,9 °C 90 % 990,4 hPa 0,0 l/m² 0 min 2 min 0 W/m² 16,1 km/h (3 Bft) 97,87 %
10.02.2026 18:00 9,1 °C 7,8 °C 3,9 °C 91 % 990,4 hPa 0,2 l/m² 0 min 2 min 0 W/m² 16,1 km/h (3 Bft) 97,87 %
10.02.2026 18:02 9,0 °C 7,8 °C 3,9 °C 91 % 990,3 hPa 0,0 l/m² 0 min 0 min 0 W/m² 19,3 km/h (3 Bft) 97,87 %
10.02.2026 18:04 9,0 °C 7,8 °C 3,3 °C 91 % 990,3 hPa 0,0 l/m² 0 min 0 min 0 W/m² 9,7 km/h (2 Bft) 97,96 %
10.02.2026 18:07 9,0 °C 7,8 °C 3,3 °C 91 % 990,3 hPa 0,0 l/m² 0 min 0 min 0 W/m² 12,9 km/h (3 Bft) 97,14 %
10.02.2026 18:08 9,0 °C 7,8 °C 3,3 °C 91 % 990,3 hPa 0,0 l/m² 0 min 0 min 0 W/m² 12,9 km/h (3 Bft) 100,00 %
10.02.2026 18:12 8,9 °C 7,8 °C 3,3 °C 91 % 990,3 hPa 0,0 l/m² 0 min 4 min 0 W/m² 9,7 km/h (2 Bft) 98,15 %
10.02.2026 18:14 8,9 °C 7,8 °C 3,3 °C 91 % 990,3 hPa 0,0 l/m² 0 min 0 min 0 W/m² 16,1 km/h (3 Bft) 97,87 %
10.02.2026 18:16 8,9 °C 7,8 °C 3,3 °C 91 % 990,3 hPa 0,0 l/m² 0 min 0 min 0 W/m² 12,9 km/h (3 Bft) 100,00 %
10.02.2026 18:18 8,9 °C 7,8 °C 3,3 °C 91 % 990,3 hPa 0,0 l/m² 0 min 0 min 0 W/m² 12,9 km/h (3 Bft) 100,00 %
10.02.2026 18:20 8,9 °C 7,8 °C 3,3 °C 91 % 990,2 hPa 0,0 l/m² 0 min 0 min 0 W/m² 12,9 km/h (3 Bft) 100,00 %
10.02.2026 18:22 8,8 °C 7,8 °C 3,3 °C 91 % 990,2 hPa 0,0 l/m² 0 min 2 min 0 W/m² 12,9 km/h (3 Bft) 100,00 %
10.02.2026 18:24 8,8 °C 7,8 °C 3,3 °C 92 % 990,2 hPa 0,0 l/m² 0 min 0 min 0 W/m² 12,9 km/h (3 Bft) 100,00 %
10.02.2026 18:26 8,8 °C 7,8 °C 3,3 °C 92 % 990,2 hPa 0,0 l/m² 0 min 2 min 0 W/m² 6,4 km/h (2 Bft) 100,00 %
10.02.2026 18:28 8,8 °C 7,8 °C 3,3 °C 92 % 990,2 hPa 0,0 l/m² 0 min 0 min 0 W/m² 16,1 km/h (3 Bft) 97,87 %
10.02.2026 18:30 8,8 °C 7,8 °C 3,3 °C 92 % 990,1 hPa 0,0 l/m² 0 min 0 min 0 W/m² 16,1 km/h (3 Bft) 100,00 %
10.02.2026 18:32 8,8 °C 7,8 °C 3,3 °C 92 % 990,1 hPa 0,0 l/m² 0 min 2 min 0 W/m² 16,1 km/h (3 Bft) 97,87 %
10.02.2026 18:34 8,8 °C 7,8 °C 3,3 °C 92 % 990,1 hPa 0,0 l/m² 0 min 0 min 0 W/m² 9,7 km/h (2 Bft) 97,87 %
10.02.2026 18:36 8,8 °C 7,8 °C 3,3 °C 92 % 990,1 hPa 0,0 l/m² 0 min 0 min 0 W/m² 12,9 km/h (3 Bft) 100,00 %
10.02.2026 18:38 8,8 °C 7,8 °C 3,3 °C 92 % 990,0 hPa 0,0 l/m² 0 min 2 min 0 W/m² 9,7 km/h (2 Bft) 100,00 %
10.02.2026 18:40 8,7 °C 7,8 °C 3,3 °C 92 % 990,0 hPa 0,0 l/m² 0 min 2 min 0 W/m² 6,4 km/h (2 Bft) 100,00 %
10.02.2026 18:42 8,7 °C 7,8 °C 3,3 °C 92 % 990,0 hPa 0,0 l/m² 0 min 2 min 0 W/m² 6,4 km/h (2 Bft) 100,00 %
10.02.2026 18:44 8,7 °C 7,8 °C 3,3 °C 92 % 989,9 hPa 0,0 l/m² 0 min 0 min 0 W/m² 12,9 km/h (3 Bft) 100,00 %
10.02.2026 18:46 8,7 °C 7,8 °C 3,3 °C 92 % 989,9 hPa 0,0 l/m² 0 min 2 min 0 W/m² 6,4 km/h (2 Bft) 97,87 %
10.02.2026 18:48 8,7 °C 7,8 °C 3,3 °C 93 % 989,9 hPa 0,2 l/m² 0 min 2 min 0 W/m² 6,4 km/h (2 Bft) 100,00 %
10.02.2026 18:50 8,7 °C 7,8 °C 3,3 °C 93 % 989,9 hPa 0,0 l/m² 0 min 0 min 0 W/m² 12,9 km/h (3 Bft) 100,00 %
10.02.2026 18:52 8,6 °C 7,2 °C 3,3 °C 93 % 989,8 hPa 0,2 l/m² 0 min 0 min 0 W/m² 16,1 km/h (3 Bft) 100,00 %
10.02.2026 18:54 8,6 °C 7,2 °C 3,3 °C 93 % 989,8 hPa 0,0 l/m² 0 min 0 min 0 W/m² 6,4 km/h (2 Bft) 100,00 %
10.02.2026 18:56 8,6 °C 7,2 °C 3,3 °C 93 % 989,7 hPa 0,0 l/m² 0 min 0 min 0 W/m² 12,9 km/h (3 Bft) 100,00 %
10.02.2026 18:58 8,6 °C 7,2 °C 3,3 °C 93 % 989,7 hPa 0,0 l/m² 0 min 0 min 0 W/m² 6,4 km/h (2 Bft) 100,00 %
10.02.2026 19:00 8,6 °C 7,2 °C 3,3 °C 93 % 989,7 hPa 0,0 l/m² 0 min 0 min 0 W/m² 9,7 km/h (2 Bft) 97,87 %
10.02.2026 19:02 8,6 °C 7,2 °C 3,3 °C 93 % 989,7 hPa 0,0 l/m² 0 min 0 min 0 W/m² 12,9 km/h (3 Bft) 95,74 %
10.02.2026 19:04 8,6 °C 7,2 °C 3,3 °C 93 % 989,7 hPa 0,0 l/m² 0 min 0 min 0 W/m² 9,7 km/h (2 Bft) 95,12 %
10.02.2026 19:06 8,6 °C 7,2 °C 3,3 °C 93 % 989,7 hPa 0,0 l/m² 0 min 0 min 0 W/m² 6,4 km/h (2 Bft) 95,74 %
10.02.2026 19:08 8,5 °C 7,2 °C 3,3 °C 93 % 989,6 hPa 0,0 l/m² 0 min 0 min 0 W/m² 6,4 km/h (2 Bft) 98,11 %
10.02.2026 19:10 8,5 °C 7,2 °C 3,3 °C 93 % 989,6 hPa 0,0 l/m² 0 min 0 min 0 W/m² 12,9 km/h (3 Bft) 95,74 %
10.02.2026 19:12 8,4 °C 7,2 °C 3,3 °C 93 % 989,6 hPa 0,0 l/m² 0 min 0 min 0 W/m² 12,9 km/h (3 Bft) 97,87 %
10.02.2026 19:14 8,4 °C 7,2 °C 3,3 °C 94 % 989,6 hPa 0,0 l/m² 0 min 0 min 0 W/m² 6,4 km/h (2 Bft) 93,62 %
10.02.2026 19:16 8,4 °C 7,2 °C 3,3 °C 94 % 989,5 hPa 0,0 l/m² 0 min 0 min 0 W/m² 16,1 km/h (3 Bft) 93,62 %
10.02.2026 19:18 8,4 °C 7,2 °C 3,3 °C 94 % 989,5 hPa 0,0 l/m² 0 min 0 min 0 W/m² 6,4 km/h (2 Bft) 95,74 %
10.02.2026 19:20 8,4 °C 7,2 °C 3,3 °C 94 % 989,5 hPa 0,0 l/m² 0 min 0 min 0 W/m² 6,4 km/h (2 Bft) 95,74 %
10.02.2026 19:22 8,4 °C 7,8 °C 3,3 °C 94 % 989,4 hPa 0,0 l/m² 0 min 0 min 0 W/m² 16,1 km/h (3 Bft) 95,74 %
10.02.2026 19:24 8,4 °C 7,8 °C 3,3 °C 94 % 989,4 hPa 0,0 l/m² 0 min 0 min 0 W/m² 12,9 km/h (3 Bft) 95,74 %
10.02.2026 19:26 8,4 °C 7,8 °C 3,3 °C 94 % 989,4 hPa 0,0 l/m² 0 min 0 min 0 W/m² 16,1 km/h (3 Bft) 95,74 %
10.02.2026 19:28 8,4 °C 7,8 °C 3,3 °C 94 % 989,4 hPa 0,0 l/m² 0 min 0 min 0 W/m² 12,9 km/h (3 Bft) 93,62 %
10.02.2026 19:30 8,4 °C 7,2 °C 3,3 °C 94 % 989,4 hPa 0,0 l/m² 0 min 0 min 0 W/m² 12,9 km/h (3 Bft) 95,74 %
10.02.2026 19:32 8,4 °C 7,2 °C 3,3 °C 94 % 989,3 hPa 0,0 l/m² 0 min 0 min 0 W/m² 12,9 km/h (3 Bft) 93,48 %
10.02.2026 19:34 8,4 °C 7,2 °C 3,3 °C 94 % 989,3 hPa 0,0 l/m² 0 min 0 min 0 W/m² 16,1 km/h (3 Bft) 95,74 %
10.02.2026 19:36 8,3 °C 7,2 °C 3,3 °C 94 % 989,3 hPa 0,0 l/m² 0 min 0 min 0 W/m² 12,9 km/h (3 Bft) 95,74 %
10.02.2026 19:38 8,3 °C 7,2 °C 3,3 °C 94 % 989,2 hPa 0,0 l/m² 0 min 0 min 0 W/m² 19,3 km/h (3 Bft) 95,74 %
10.02.2026 19:40 8,3 °C 7,2 °C 3,3 °C 94 % 989,2 hPa 0,0 l/m² 0 min 0 min 0 W/m² 9,7 km/h (2 Bft) 97,87 %
10.02.2026 19:42 8,3 °C 7,2 °C 3,3 °C 94 % 989,1 hPa 0,0 l/m² 0 min 0 min 0 W/m² 12,9 km/h (3 Bft) 97,87 %
10.02.2026 19:44 8,3 °C 7,2 °C 3,3 °C 94 % 989,1 hPa 0,0 l/m² 0 min 0 min 0 W/m² 16,1 km/h (3 Bft) 95,74 %
10.02.2026 19:46 8,3 °C 7,2 °C 3,3 °C 94 % 989,1 hPa 0,0 l/m² 0 min 0 min 0 W/m² 6,4 km/h (2 Bft) 97,14 %
10.02.2026 19:48 8,3 °C 7,2 °C 3,3 °C 95 % 989,1 hPa 0,0 l/m² 0 min 0 min 0 W/m² 16,1 km/h (3 Bft) 95,74 %
10.02.2026 19:50 8,3 °C 7,2 °C 3,3 °C 95 % 989,1 hPa 0,0 l/m² 0 min 0 min 0 W/m² 6,4 km/h (2 Bft) 95,74 %
10.02.2026 19:52 8,2 °C 7,2 °C 2,8 °C 95 % 989,1 hPa 0,0 l/m² 0 min 0 min 0 W/m² 6,4 km/h (2 Bft) 95,74 %
10.02.2026 19:54 8,2 °C 7,2 °C 2,8 °C 95 % 989,1 hPa 0,0 l/m² 0 min 0 min 0 W/m² 9,7 km/h (2 Bft) 100,00 %
10.02.2026 19:56 8,2 °C 7,2 °C 2,8 °C 94 % 989,1 hPa 0,0 l/m² 0 min 0 min 0 W/m² 6,4 km/h (2 Bft) 95,74 %
10.02.2026 19:58 8,2 °C 7,2 °C 2,8 °C 94 % 989,0 hPa 0,0 l/m² 0 min 0 min 0 W/m² 6,4 km/h (2 Bft) 97,87 %
10.02.2026 20:00 8,2 °C 7,2 °C 2,8 °C 95 % 989,0 hPa 0,0 l/m² 0 min 0 min 0 W/m² 12,9 km/h (3 Bft) 97,87 %
10.02.2026 20:02 8,1 °C 7,2 °C 2,8 °C 95 % 988,9 hPa 0,0 l/m² 0 min 0 min 0 W/m² 9,7 km/h (2 Bft) 95,74 %
10.02.2026 20:04 8,1 °C 7,2 °C 2,8 °C 95 % 988,9 hPa 0,0 l/m² 0 min 0 min 0 W/m² 9,7 km/h (2 Bft) 100,00 %
10.02.2026 20:06 8,1 °C 7,2 °C 2,8 °C 95 % 988,9 hPa 0,0 l/m² 0 min 0 min 0 W/m² 6,4 km/h (2 Bft) 93,75 %
10.02.2026 20:08 8,1 °C 6,7 °C 2,8 °C 95 % 988,8 hPa 0,0 l/m² 0 min 0 min 0 W/m² 9,7 km/h (2 Bft) 97,30 %
10.02.2026 20:10 8,1 °C 6,7 °C 2,8 °C 95 % 988,8 hPa 0,0 l/m² 0 min 0 min 0 W/m² 6,4 km/h (2 Bft) 97,83 %
10.02.2026 20:12 8,0 °C 6,7 °C 2,8 °C 95 % 988,8 hPa 0,0 l/m² 0 min 0 min 0 W/m² 9,7 km/h (2 Bft) 97,87 %
10.02.2026 20:14 8,0 °C 6,7 °C 2,8 °C 95 % 988,8 hPa 0,0 l/m² 0 min 0 min 0 W/m² 12,9 km/h (3 Bft) 97,87 %
10.02.2026 20:16 7,9 °C 6,7 °C 2,8 °C 95 % 988,7 hPa 0,0 l/m² 0 min 0 min 0 W/m² 16,1 km/h (3 Bft) 95,74 %
10.02.2026 20:18 7,9 °C 6,7 °C 2,8 °C 95 % 988,8 hPa 0,0 l/m² 0 min 0 min 0 W/m² 12,9 km/h (3 Bft) 97,87 %
10.02.2026 20:20 7,8 °C 6,7 °C 2,8 °C 95 % 988,7 hPa 0,0 l/m² 0 min 0 min 0 W/m² 12,9 km/h (3 Bft) 97,87 %
10.02.2026 20:22 7,8 °C 6,7 °C 2,8 °C 95 % 988,7 hPa 0,0 l/m² 0 min 0 min 0 W/m² 12,9 km/h (3 Bft) 97,87 %
10.02.2026 20:24 7,8 °C 6,7 °C 2,8 °C 95 % 988,6 hPa 0,0 l/m² 0 min 0 min 0 W/m² 16,1 km/h (3 Bft) 95,74 %
10.02.2026 20:26 7,7 °C 6,7 °C 2,8 °C 95 % 988,5 hPa 0,0 l/m² 0 min 0 min 0 W/m² 12,9 km/h (3 Bft) 97,87 %
10.02.2026 20:28 7,7 °C 6,7 °C 2,8 °C 95 % 988,5 hPa 0,0 l/m² 0 min 0 min 0 W/m² 16,1 km/h (3 Bft) 97,83 %
10.02.2026 20:30 7,7 °C 6,7 °C 2,8 °C 95 % 988,5 hPa 0,0 l/m² 0 min 0 min 0 W/m² 16,1 km/h (3 Bft) 97,87 %
10.02.2026 20:32 7,6 °C 6,7 °C 2,8 °C 95 % 988,4 hPa 0,0 l/m² 0 min 0 min 0 W/m² 16,1 km/h (3 Bft) 95,74 %
10.02.2026 20:34 7,6 °C 6,7 °C 2,8 °C 95 % 988,4 hPa 0,0 l/m² 0 min 0 min 0 W/m² 12,9 km/h (3 Bft) 97,87 %
10.02.2026 20:36 7,6 °C 6,7 °C 2,8 °C 95 % 988,4 hPa 0,0 l/m² 0 min 0 min 0 W/m² 6,4 km/h (2 Bft) 97,87 %
10.02.2026 20:38 7,6 °C 6,7 °C 2,8 °C 95 % 988,4 hPa 0,0 l/m² 0 min 0 min 0 W/m² 12,9 km/h (3 Bft) 97,87 %
10.02.2026 20:40 7,5 °C 6,7 °C 2,8 °C 95 % 988,4 hPa 0,0 l/m² 0 min 0 min 0 W/m² 9,7 km/h (2 Bft) 95,74 %
10.02.2026 20:42 7,5 °C 6,7 °C 2,8 °C 95 % 988,3 hPa 0,0 l/m² 0 min 0 min 0 W/m² 6,4 km/h (2 Bft) 97,87 %
10.02.2026 20:44 7,5 °C 6,7 °C 2,8 °C 95 % 988,3 hPa 0,0 l/m² 0 min 0 min 0 W/m² 6,4 km/h (2 Bft) 97,87 %
10.02.2026 20:46 7,5 °C 6,7 °C 2,8 °C 95 % 988,3 hPa 0,0 l/m² 0 min 0 min 0 W/m² 19,3 km/h (3 Bft) 100,00 %
10.02.2026 20:48 7,4 °C 6,7 °C 2,8 °C 95 % 988,3 hPa 0,0 l/m² 0 min 0 min 0 W/m² 16,1 km/h (3 Bft) 97,87 %
10.02.2026 20:50 7,4 °C 6,7 °C 2,8 °C 95 % 988,2 hPa 0,0 l/m² 0 min 0 min 0 W/m² 16,1 km/h (3 Bft) 100,00 %
10.02.2026 20:52 7,5 °C 6,7 °C 2,8 °C 95 % 988,1 hPa 0,0 l/m² 0 min 0 min 0 W/m² 6,4 km/h (2 Bft) 100,00 %
10.02.2026 20:54 7,5 °C 6,7 °C 2,8 °C 95 % 988,1 hPa 0,0 l/m² 0 min 0 min 0 W/m² 16,1 km/h (3 Bft) 100,00 %
10.02.2026 20:56 7,5 °C 6,7 °C 2,8 °C 95 % 988,1 hPa 0,0 l/m² 0 min 0 min 0 W/m² 12,9 km/h (3 Bft) 100,00 %
10.02.2026 20:58 7,5 °C 6,7 °C 2,8 °C 95 % 988,1 hPa 0,0 l/m² 0 min 0 min 0 W/m² 9,7 km/h (2 Bft) 97,87 %
10.02.2026 21:00 7,5 °C 6,7 °C 2,8 °C 95 % 988,0 hPa 0,0 l/m² 0 min 0 min 0 W/m² 6,4 km/h (2 Bft) 100,00 %
10.02.2026 21:02 7,5 °C 6,7 °C 2,8 °C 96 % 988,0 hPa 0,0 l/m² 0 min 0 min 0 W/m² 12,9 km/h (3 Bft) 95,74 %
10.02.2026 21:04 7,5 °C 6,7 °C 2,8 °C 96 % 987,9 hPa 0,0 l/m² 0 min 0 min 0 W/m² 9,7 km/h (2 Bft) 78,05 %
10.02.2026 21:06 7,5 °C 6,7 °C 2,8 °C 96 % 987,9 hPa 0,0 l/m² 0 min 0 min 0 W/m² 9,7 km/h (2 Bft) 81,54 %
10.02.2026 21:08 7,5 °C 6,7 °C 2,8 °C 96 % 987,9 hPa 0,0 l/m² 0 min 0 min 0 W/m² 6,4 km/h (2 Bft) 96,55 %
10.02.2026 21:10 7,5 °C 6,7 °C 2,8 °C 96 % 987,9 hPa 0,0 l/m² 0 min 0 min 0 W/m² 12,9 km/h (3 Bft) 97,87 %
10.02.2026 21:12 7,6 °C 6,7 °C 2,8 °C 96 % 987,9 hPa 0,0 l/m² 0 min 0 min 0 W/m² 9,7 km/h (2 Bft) 97,87 %
10.02.2026 21:14 7,6 °C 6,7 °C 2,8 °C 96 % 987,9 hPa 0,0 l/m² 0 min 0 min 0 W/m² 6,4 km/h (2 Bft) 97,87 %
10.02.2026 21:16 7,6 °C 6,7 °C 2,8 °C 96 % 987,8 hPa 0,0 l/m² 0 min 0 min 0 W/m² 12,9 km/h (3 Bft) 95,74 %
10.02.2026 21:18 7,6 °C 7,2 °C 2,8 °C 96 % 987,8 hPa 0,0 l/m² 0 min 0 min 0 W/m² 16,1 km/h (3 Bft) 98,08 %
10.02.2026 21:20 7,6 °C 7,2 °C 2,8 °C 96 % 987,8 hPa 0,0 l/m² 0 min 0 min 0 W/m² 16,1 km/h (3 Bft) 95,74 %
10.02.2026 21:22 7,6 °C 7,2 °C 2,8 °C 96 % 987,8 hPa 0,0 l/m² 0 min 0 min 0 W/m² 12,9 km/h (3 Bft) 95,74 %
10.02.2026 21:24 7,6 °C 7,2 °C 2,8 °C 96 % 987,8 hPa 0,0 l/m² 0 min 0 min 0 W/m² 12,9 km/h (3 Bft) 97,87 %
10.02.2026 21:26 7,6 °C 7,2 °C 2,8 °C 96 % 987,7 hPa 0,0 l/m² 0 min 0 min 0 W/m² 12,9 km/h (3 Bft) 93,62 %
10.02.2026 21:28 7,6 °C 7,2 °C 2,8 °C 96 % 987,7 hPa 0,0 l/m² 0 min 0 min 0 W/m² 12,9 km/h (3 Bft) 97,87 %
10.02.2026 21:30 7,6 °C 7,2 °C 2,8 °C 96 % 987,7 hPa 0,0 l/m² 0 min 0 min 0 W/m² 12,9 km/h (3 Bft) 97,87 %
10.02.2026 21:32 7,6 °C 7,2 °C 2,8 °C 96 % 987,7 hPa 0,0 l/m² 0 min 0 min 0 W/m² 12,9 km/h (3 Bft) 100,00 %
10.02.2026 21:34 7,6 °C 7,2 °C 2,8 °C 96 % 987,7 hPa 0,0 l/m² 0 min 0 min 0 W/m² 12,9 km/h (3 Bft) 100,00 %
10.02.2026 21:36 7,6 °C 7,2 °C 2,8 °C 96 % 987,7 hPa 0,0 l/m² 0 min 0 min 0 W/m² 9,7 km/h (2 Bft) 100,00 %
10.02.2026 21:38 7,6 °C 7,2 °C 2,8 °C 96 % 987,6 hPa 0,0 l/m² 0 min 0 min 0 W/m² 12,9 km/h (3 Bft) 97,87 %
10.02.2026 21:40 7,6 °C 7,2 °C 2,8 °C 96 % 987,6 hPa 0,0 l/m² 0 min 0 min 0 W/m² 9,7 km/h (2 Bft) 100,00 %
10.02.2026 21:42 7,6 °C 7,2 °C 2,8 °C 96 % 987,6 hPa 0,0 l/m² 0 min 0 min 0 W/m² 9,7 km/h (2 Bft) 100,00 %
10.02.2026 21:44 7,6 °C 7,2 °C 2,8 °C 96 % 987,5 hPa 0,0 l/m² 0 min 0 min 0 W/m² 12,9 km/h (3 Bft) 100,00 %
10.02.2026 21:46 7,6 °C 7,2 °C 2,8 °C 96 % 987,5 hPa 0,0 l/m² 0 min 0 min 0 W/m² 6,4 km/h (2 Bft) 97,87 %
10.02.2026 21:48 7,6 °C 6,7 °C 2,8 °C 96 % 987,5 hPa 0,0 l/m² 0 min 0 min 0 W/m² 6,4 km/h (2 Bft) 100,00 %
10.02.2026 21:50 7,6 °C 6,7 °C 2,8 °C 96 % 987,5 hPa 0,0 l/m² 0 min 0 min 0 W/m² 6,4 km/h (2 Bft) 97,87 %
10.02.2026 21:52 7,6 °C 6,7 °C 2,8 °C 96 % 987,5 hPa 0,0 l/m² 0 min 0 min 0 W/m² 12,9 km/h (3 Bft) 100,00 %
10.02.2026 21:54 7,6 °C 6,7 °C 2,8 °C 96 % 987,4 hPa 0,0 l/m² 0 min 0 min 0 W/m² 16,1 km/h (3 Bft) 100,00 %
10.02.2026 21:56 7,6 °C 6,7 °C 2,8 °C 96 % 987,4 hPa 0,0 l/m² 0 min 0 min 0 W/m² 12,9 km/h (3 Bft) 100,00 %
10.02.2026 21:58 7,6 °C 6,7 °C 2,8 °C 96 % 987,3 hPa 0,0 l/m² 0 min 0 min 0 W/m² 12,9 km/h (3 Bft) 100,00 %
10.02.2026 22:00 7,6 °C 6,7 °C 2,8 °C 96 % 987,3 hPa 0,0 l/m² 0 min 0 min 0 W/m² 6,4 km/h (2 Bft) 100,00 %
10.02.2026 22:02 7,6 °C 6,7 °C 2,8 °C 96 % 987,3 hPa 0,0 l/m² 0 min 0 min 0 W/m² 12,9 km/h (3 Bft) 100,00 %
10.02.2026 22:04 7,6 °C 6,7 °C 2,8 °C 96 % 987,2 hPa 0,0 l/m² 0 min 0 min 0 W/m² 6,4 km/h (2 Bft) 100,00 %
10.02.2026 22:06 7,6 °C 6,7 °C 2,8 °C 96 % 987,3 hPa 0,0 l/m² 0 min 0 min 0 W/m² 6,4 km/h (2 Bft) 100,00 %
10.02.2026 22:08 7,6 °C 6,7 °C 2,8 °C 96 % 987,2 hPa 0,0 l/m² 0 min 0 min 0 W/m² 9,7 km/h (2 Bft) 100,00 %
10.02.2026 22:10 7,6 °C 6,7 °C 2,8 °C 96 % 987,2 hPa 0,0 l/m² 0 min 0 min 0 W/m² 6,4 km/h (2 Bft) 95,74 %
10.02.2026 22:12 7,6 °C 6,7 °C 2,8 °C 96 % 987,2 hPa 0,0 l/m² 0 min 0 min 0 W/m² 3,2 km/h (1 Bft) 96,23 %
10.02.2026 22:14 7,5 °C 6,7 °C 2,8 °C 96 % 987,1 hPa 0,0 l/m² 0 min 0 min 0 W/m² 6,4 km/h (2 Bft) 97,87 %
10.02.2026 22:16 7,5 °C 6,7 °C 2,8 °C 96 % 987,2 hPa 0,0 l/m² 0 min 0 min 0 W/m² 12,9 km/h (3 Bft) 93,62 %
10.02.2026 22:18 7,5 °C 6,7 °C 2,8 °C 96 % 987,1 hPa 0,0 l/m² 0 min 0 min 0 W/m² 12,9 km/h (3 Bft) 97,87 %
10.02.2026 22:20 7,5 °C 6,7 °C 2,8 °C 96 % 987,1 hPa 0,0 l/m² 0 min 0 min 0 W/m² 12,9 km/h (3 Bft) 97,87 %
10.02.2026 22:22 7,5 °C 6,7 °C 2,8 °C 96 % 987,1 hPa 0,0 l/m² 0 min 0 min 0 W/m² 6,4 km/h (2 Bft) 97,87 %
10.02.2026 22:24 7,5 °C 6,7 °C 2,8 °C 96 % 987,0 hPa 0,0 l/m² 0 min 0 min 0 W/m² 6,4 km/h (2 Bft) 97,87 %
10.02.2026 22:26 7,5 °C 6,7 °C 2,8 °C 96 % 987,0 hPa 0,0 l/m² 0 min 0 min 0 W/m² 9,7 km/h (2 Bft) 93,48 %
10.02.2026 22:28 7,5 °C 7,2 °C 2,8 °C 96 % 987,0 hPa 0,0 l/m² 0 min 0 min 0 W/m² 12,9 km/h (3 Bft) 97,87 %
10.02.2026 22:30 7,5 °C 7,2 °C 2,8 °C 96 % 987,0 hPa 0,0 l/m² 0 min 0 min 0 W/m² 9,7 km/h (2 Bft) 97,87 %
10.02.2026 22:32 7,6 °C 7,2 °C 2,8 °C 96 % 986,9 hPa 0,0 l/m² 0 min 0 min 0 W/m² 12,9 km/h (3 Bft) 97,87 %
10.02.2026 22:34 7,6 °C 7,2 °C 3,3 °C 96 % 986,9 hPa 0,0 l/m² 0 min 0 min 0 W/m² 16,1 km/h (3 Bft) 93,62 %
10.02.2026 22:36 7,6 °C 7,2 °C 3,3 °C 96 % 986,9 hPa 0,0 l/m² 0 min 0 min 0 W/m² 16,1 km/h (3 Bft) 95,74 %
10.02.2026 22:38 7,6 °C 7,2 °C 3,3 °C 96 % 986,8 hPa 0,0 l/m² 0 min 0 min 0 W/m² 12,9 km/h (3 Bft) 95,74 %
10.02.2026 22:40 7,6 °C 7,2 °C 3,3 °C 96 % 986,8 hPa 0,0 l/m² 0 min 0 min 0 W/m² 19,3 km/h (3 Bft) 95,74 %
10.02.2026 22:42 7,6 °C 7,2 °C 3,3 °C 96 % 986,9 hPa 0,0 l/m² 0 min 0 min 0 W/m² 12,9 km/h (3 Bft) 91,49 %
10.02.2026 22:44 7,6 °C 7,2 °C 3,3 °C 96 % 986,8 hPa 0,0 l/m² 0 min 0 min 0 W/m² 12,9 km/h (3 Bft) 95,74 %
10.02.2026 22:46 7,6 °C 7,2 °C 3,3 °C 96 % 986,8 hPa 0,0 l/m² 0 min 0 min 0 W/m² 16,1 km/h (3 Bft) 95,74 %
10.02.2026 22:48 7,7 °C 7,2 °C 3,3 °C 96 % 986,7 hPa 0,0 l/m² 0 min 0 min 0 W/m² 16,1 km/h (3 Bft) 95,74 %
10.02.2026 22:50 7,7 °C 6,7 °C 3,3 °C 96 % 986,7 hPa 0,0 l/m² 0 min 0 min 0 W/m² 9,7 km/h (2 Bft) 93,62 %
10.02.2026 22:52 7,7 °C 6,7 °C 3,3 °C 96 % 986,7 hPa 0,0 l/m² 0 min 0 min 0 W/m² 12,9 km/h (3 Bft) 93,48 %
10.02.2026 22:54 7,7 °C 6,7 °C 3,3 °C 96 % 986,6 hPa 0,0 l/m² 0 min 2 min 0 W/m² 9,7 km/h (2 Bft) 93,62 %
10.02.2026 22:56 7,7 °C 6,7 °C 3,3 °C 96 % 986,6 hPa 0,2 l/m² 0 min 0 min 0 W/m² 12,9 km/h (3 Bft) 93,62 %
10.02.2026 22:58 7,7 °C 6,7 °C 3,3 °C 96 % 986,6 hPa 0,0 l/m² 0 min 0 min 0 W/m² 9,7 km/h (2 Bft) 91,49 %
10.02.2026 23:00 7,7 °C 6,7 °C 3,3 °C 96 % 986,5 hPa 0,0 l/m² 0 min 0 min 0 W/m² 9,7 km/h (2 Bft) 91,49 %
10.02.2026 23:02 7,7 °C 6,7 °C 3,3 °C 97 % 986,5 hPa 0,0 l/m² 0 min 0 min 0 W/m² 6,4 km/h (2 Bft) 95,74 %
10.02.2026 23:04 7,7 °C 6,7 °C 3,3 °C 97 % 986,5 hPa 0,0 l/m² 0 min 0 min 0 W/m² 3,2 km/h (1 Bft) 94,74 %
10.02.2026 23:06 7,7 °C 6,7 °C 3,3 °C 97 % 986,4 hPa 0,2 l/m² 0 min 0 min 0 W/m² 9,7 km/h (2 Bft) 94,00 %
10.02.2026 23:08 7,7 °C 6,7 °C 3,3 °C 97 % 986,4 hPa 0,0 l/m² 0 min 0 min 0 W/m² 6,4 km/h (2 Bft) 95,74 %
10.02.2026 23:10 7,7 °C 6,7 °C 3,3 °C 97 % 986,4 hPa 0,0 l/m² 0 min 0 min 0 W/m² 12,9 km/h (3 Bft) 95,74 %
10.02.2026 23:12 7,7 °C 6,7 °C 3,3 °C 97 % 986,3 hPa 0,0 l/m² 0 min 2 min 0 W/m² 9,7 km/h (2 Bft) 95,74 %
10.02.2026 23:14 7,7 °C 6,7 °C 3,3 °C 97 % 986,3 hPa 0,0 l/m² 0 min 0 min 0 W/m² 6,4 km/h (2 Bft) 95,74 %
10.02.2026 23:16 7,7 °C 6,7 °C 3,3 °C 97 % 986,3 hPa 0,0 l/m² 0 min 0 min 0 W/m² 6,4 km/h (2 Bft) 97,87 %
10.02.2026 23:18 7,7 °C 6,7 °C 3,3 °C 97 % 986,2 hPa 0,0 l/m² 0 min 0 min 0 W/m² 6,4 km/h (2 Bft) 95,65 %
10.02.2026 23:20 7,7 °C 6,7 °C 3,3 °C 97 % 986,2 hPa 0,0 l/m² 0 min 0 min 0 W/m² 12,9 km/h (3 Bft) 95,74 %
10.02.2026 23:22 7,7 °C 6,7 °C 3,3 °C 97 % 986,1 hPa 0,0 l/m² 0 min 0 min 0 W/m² 12,9 km/h (3 Bft) 95,74 %
10.02.2026 23:24 7,7 °C 6,7 °C 3,3 °C 97 % 986,1 hPa 0,0 l/m² 0 min 0 min 0 W/m² 12,9 km/h (3 Bft) 97,87 %
10.02.2026 23:26 7,7 °C 6,7 °C 3,3 °C 97 % 986,0 hPa 0,0 l/m² 0 min 0 min 0 W/m² 16,1 km/h (3 Bft) 97,92 %
10.02.2026 23:28 7,7 °C 6,7 °C 3,3 °C 97 % 986,0 hPa 0,0 l/m² 0 min 0 min 0 W/m² 12,9 km/h (3 Bft) 100,00 %
10.02.2026 23:30 7,7 °C 6,7 °C 3,3 °C 97 % 986,0 hPa 0,0 l/m² 0 min 0 min 0 W/m² 9,7 km/h (2 Bft) 100,00 %
10.02.2026 23:32 7,7 °C 6,7 °C 3,3 °C 97 % 986,0 hPa 0,0 l/m² 0 min 0 min 0 W/m² 12,9 km/h (3 Bft) 100,00 %
10.02.2026 23:34 7,7 °C 6,7 °C 3,3 °C 97 % 986,0 hPa 0,0 l/m² 0 min 0 min 0 W/m² 12,9 km/h (3 Bft) 97,87 %
10.02.2026 23:36 7,7 °C 6,7 °C 3,3 °C 97 % 986,0 hPa 0,0 l/m² 0 min 0 min 0 W/m² 12,9 km/h (3 Bft) 100,00 %
10.02.2026 23:38 7,7 °C 6,7 °C 3,3 °C 97 % 985,9 hPa 0,0 l/m² 0 min 0 min 0 W/m² 12,9 km/h (3 Bft) 100,00 %
10.02.2026 23:40 7,7 °C 6,7 °C 3,3 °C 97 % 985,9 hPa 0,0 l/m² 0 min 0 min 0 W/m² 12,9 km/h (3 Bft) 100,00 %
10.02.2026 23:42 7,7 °C 6,7 °C 3,3 °C 97 % 985,9 hPa 0,0 l/m² 0 min 0 min 0 W/m² 12,9 km/h (3 Bft) 100,00 %
10.02.2026 23:44 7,7 °C 6,7 °C 3,3 °C 97 % 985,8 hPa 0,0 l/m² 0 min 0 min 0 W/m² 6,4 km/h (2 Bft) 100,00 %
10.02.2026 23:46 7,7 °C 6,7 °C 3,3 °C 97 % 985,8 hPa 0,0 l/m² 0 min 0 min 0 W/m² 3,2 km/h (1 Bft) 100,00 %
10.02.2026 23:48 7,7 °C 6,7 °C 3,3 °C 97 % 985,8 hPa 0,0 l/m² 0 min 0 min 0 W/m² 6,4 km/h (2 Bft) 100,00 %
10.02.2026 23:50 7,7 °C 6,7 °C 3,3 °C 97 % 985,8 hPa 0,0 l/m² 0 min 0 min 0 W/m² 3,2 km/h (1 Bft) 100,00 %
10.02.2026 23:52 7,7 °C 6,7 °C 3,3 °C 97 % 985,7 hPa 0,0 l/m² 0 min 0 min 0 W/m² 6,4 km/h (2 Bft) 100,00 %
10.02.2026 23:54 7,6 °C 6,7 °C 3,3 °C 97 % 985,7 hPa 0,0 l/m² 0 min 0 min 0 W/m² 3,2 km/h (1 Bft) 100,00 %
10.02.2026 23:56 7,6 °C 6,7 °C 3,3 °C 97 % 985,6 hPa 0,0 l/m² 0 min 0 min 0 W/m² 0,0 km/h (0 Bft) 100,00 %
10.02.2026 23:58 7,6 °C 6,7 °C 3,3 °C 97 % 985,6 hPa 0,0 l/m² 0 min 0 min 0 W/m² 0,0 km/h (0 Bft) 100,00 %
_ Min-Zeit 06:22 05:38 02:08 15:02 23:56 - - - - 16:36 05:10
Minimum _ 3,0 °C 2,2 °C -1,1 °C 86 % 985,6 hPa - - - - 0,0 km/h (0 Bft) 51,43 %
_ Max-Zeit 15:02 14:26 14:14 23:02 00:00 08:24 13:02 18:12 13:04 08:42 00:00
Maximum _ 9,6 °C 10,0 °C 5,0 °C 97 % 1001,9 hPa 0,2 l/m² 2 min 4 min 224 W/m² 35,4 km/h
S (5 Bft)
100,00 %
Durchschnitt _ 6,0 °C 5,5 °C 1,6 °C 92 % 994,1 hPa #1,7 l/m² #6 min. #58 min. 77 W/m² 16,0 km/h (3 Bft) 97,12 %
© 2026 W. Hausmann